GEFSSGP_con_probscp_000.txt.gz
Probability
0 0 0 0 0 0 0 0 0 1 2 3 1 0 0 0 1 0 0 0 0 0 1 5 9 11 10 8 6 4 4 5 5 5 6 6 4 3 3 3 3 3 3 3 3 3 3 3 3
0 0 0 0 0 0 0 0 0 1 2 2 2 1 1 1 1 1 0 0 0 0 2 5 9 10 10 8 5 4 5 7 7 6 6 5 4 3 3 3 3 3 3 3 3 3 3 3 3
0 0 0 0 0 0 0 0 1 2 2 1 1 2 2 3 2 1 0 0 0 1 3 5 8 9 9 9 6 4 5 7 8 7 6 4 3 3 3 3 3 3 3 3 3 3 3 3 3
0 0 0 0 0 0 0 0 1 1 1 0 1 2 3 3 2 1 1 1 2 3 3 4 5 6 7 10 12 9 6 5 6 8 8 7 5 4 4 3 3 3 3 3 3 3 3 3 3
0 0 0 0 0 0 0 0 0 0 0 0 0 1 1 2 1 1 3 4 4 3 2 3 4 4 5 16 29 25 12 7 6 9 12 10 7 6 4 3 3 3 4 4 5 4 4 3 3
0 0 0 0 0 0 0 0 0 0 0 0 0 1 1 2 1 1 3 4 4 2 1 2 3 4 8 26 46 43 27 18 13 12 14 10 6 4 4 3 3 5 9 14 17 14 8 7 9
0 0 0 0 0 0 0 0 0 0 0 0 1 2 3 2 2 1 1 2 3 3 3 3 3 3 10 34 59 61 52 45 33 23 18 13 10 10 8 6 8 14 18 22 27 22 10 9 13
0 0 0 0 0 0 0 0 0 0 1 1 1 3 5 8 10 10 7 4 4 5 4 3 3 3 8 27 51 65 71 69 55 35 21 16 17 17 13 11 16 22 18 15 15 12 6 5 6
0 0 0 0 0 0 0 0 0 1 2 2 3 8 19 31 37 35 24 10 5 5 4 3 3 3 5 12 25 40 54 57 46 28 14 11 11 11 10 14 22 21 10 3 1 1 1 0 0
0 0 0 0 0 0 0 0 0 1 2 3 5 20 44 61 63 52 29 11 5 4 3 3 3 3 3 3 5 11 18 20 17 10 4 2 2 2 3 11 20 15 4 0 0 0 0 0 0
0 0 0 0 0 0 0 0 0 0 1 2 10 35 62 70 65 47 23 8 4 3 3 3 3 3 2 2 1 1 1 1 1 1 0 0 0 0 0 5 8 6 1 0 0 0 0 0 0
0 0 0 0 0 0 0 0 0 0 0 4 23 53 67 62 58 47 23 7 3 3 3 3 3 2 1 1 0 0 0 0 0 0 0 0 0 0 0 0 0 0 0 0 0 0 0 0 0
0 0 0 0 0 0 0 0 0 0 1 9 31 54 57 55 65 60 29 8 4 3 3 3 3 2 1 0 0 0 0 0 0 0 0 0 0 0 0 0 0 0 0 0 0 0 0 0 0
0 0 0 0 0 0 0 0 0 0 1 8 21 30 31 45 72 71 37 13 10 9 6 3 3 3 2 1 0 0 0 0 0 0 0 0 0 0 0 0 0 0 0 0 0 0 0 0 0
0 0 0 0 0 0 0 0 0 0 1 4 8 8 9 24 55 69 46 22 19 18 10 4 3 3 3 2 1 0 0 0 0 0 0 0 0 0 0 0 0 0 0 0 0 0 0 0 0
0 0 0 0 0 0 0 0 0 0 1 2 3 3 2 6 24 43 41 27 23 20 12 5 3 3 3 2 1 0 0 0 0 0 0 0 0 0 0 0 0 0 0 0 0 0 0 0 0
0 0 0 0 0 0 0 0 0 0 1 2 3 2 1 0 5 13 21 24 21 16 9 4 2 2 2 1 0 0 0 0 0 0 0 0 0 0 0 0 0 0 0 0 0 0 0 0 0
0 0 0 0 0 0 0 0 0 0 1 1 1 1 0 0 0 0 6 12 13 8 5 2 1 0 0 0 0 0 0 0 0 0 0 0 0 0 0 0 0 0 0 0 0 0 0 0 0
0 0 0 0 0 0 0 0 0 0 0 0 0 0 0 0 0 0 1 3 3 2 1 1 0 0 0 0 0 0 0 0 0 0 0 0 0 0 0 1 1 1 1 1 1 0 0 0 0
0 0 0 0 0 0 0 0 0 0 0 0 0 0 0 0 0 0 0 0 0 0 0 0 0 0 0 0 0 0 0 0 0 0 0 0 0 0 0 1 2 2 2 2 1 0 0 0 0
0 0 0 0 0 0 0 0 0 0 0 0 0 0 0 0 0 0 0 0 0 0 0 0 0 0 0 0 0 0 0 0 0 0 0 0 0 0 0 1 1 1 1 1 1 0 0 0 0
0 0 0 0 0 0 0 0 0 0 0 0 0 0 0 0 0 0 0 0 0 0 0 0 0 0 0 0 0 0 0 0 0 0 0 0 0 0 0 0 0 0 0 0 0 0 0 0 0
0 0 0 0 0 0 0 0 0 0 0 0 0 0 0 0 0 0 0 0 0 0 0 0 0 0 0 0 0 0 0 0 0 0 0 0 0 0 0 0 0 0 0 0 0 0 0 0 0
0 0 0 0 0 0 0 0 0 0 0 0 0 0 0 0 0 0 0 0 0 0 0 0 0 0 0 0 0 0 0 0 0 0 0 0 0 0 0 0 0 0 0 0 0 0 0 0 0
0 0 0 0 0 0 0 0 0 0 0 0 0 0 0 0 0 0 0 0 0 0 0 0 0 0 0 0 0 0 0 0 0 0 0 0 0 0 0 0 0 0 0 0 0 0 0 0 0
0 0 0 0 0 0 0 0 0 0 0 0 0 0 0 0 0 0 0 0 0 0 0 0 0 0 0 0 0 0 0 0 0 0 0 0 0 0 0 0 0 0 0 0 0 0 0 0 0
0 0 0 0 0 0 0 0 0 0 0 0 0 0 0 0 0 0 0 0 0 0 0 0 0 0 0 0 0 0 0 0 0 0 0 0 0 0 0 0 0 0 0 0 0 0 0 0 0
0 0 0 0 0 0 0 0 0 0 0 0 0 0 0 0 0 0 0 0 0 0 0 0 0 0 0 0 0 0 0 0 0 0 0 0 0 0 0 0 0 0 0 0 0 0 0 0 0
0 0 0 0 0 0 0 0 0 0 0 0 0 0 0 0 0 0 0 0 0 0 0 0 0 0 0 0 0 0 0 0 0 0 0 0 0 0 0 0 0 0 0 0 0 0 0 0 0
0 0 0 0 0 0 0 0 0 0 0 0 0 0 0 0 0 0 0 0 0 0 0 0 0 0 0 0 0 0 0 0 0 0 0 0 0 0 0 0 0 0 0 0 0 0 0 0 0

GEFSSGP_con_probscp_006.txt.gz
Probability
0 0 0 0 0 0 0 0 0 0 0 0 0 0 0 0 0 0 1 9 18 12 2 0 0 0 0 0 0 1 2 2 3 8 10 7 3 1 0 0 0 0 0 0 0 0 0 0 0
0 0 0 0 0 0 0 0 0 0 0 0 0 0 0 0 0 0 1 8 15 9 1 0 0 0 0 0 0 1 2 3 3 4 4 3 1 0 0 0 0 0 0 0 0 0 0 0 0
0 0 0 0 0 0 0 0 0 0 0 0 0 0 0 0 0 0 0 4 6 4 1 0 0 0 0 0 0 1 3 4 4 2 2 2 1 0 0 1 3 3 3 3 2 1 0 0 0
0 0 0 0 0 0 0 0 0 0 0 0 0 0 0 0 0 0 0 0 1 1 0 0 0 0 1 2 1 2 5 8 8 6 6 7 3 0 2 5 10 14 16 17 16 10 3 1 0
0 0 0 0 0 0 0 0 0 0 0 0 0 0 0 0 0 0 0 0 0 0 0 0 1 3 5 5 3 4 7 10 11 9 9 8 4 1 2 8 17 26 29 30 28 18 6 1 1
0 0 0 0 0 0 0 0 0 0 0 0 0 0 0 0 0 0 0 0 0 0 0 0 3 8 10 6 4 5 6 7 7 7 7 6 4 2 3 7 17 24 25 22 18 12 4 1 0
0 0 0 0 0 0 0 0 0 0 0 0 0 0 0 0 0 0 1 1 0 0 0 1 4 10 11 5 4 9 16 20 18 12 8 6 6 6 7 8 10 11 8 5 3 2 1 0 0
0 0 0 0 0 0 0 0 0 0 0 0 0 0 0 0 0 2 4 4 1 0 1 3 4 5 5 3 4 12 26 37 34 22 12 7 5 7 8 7 5 3 1 0 0 0 0 0 0
0 0 0 0 0 0 0 0 0 0 0 0 0 0 0 0 0 3 7 7 4 1 1 2 3 1 0 0 2 7 18 25 24 19 13 5 2 3 4 4 2 1 0 0 0 0 0 0 0
0 0 0 0 0 0 0 0 0 0 0 0 0 0 0 0 0 2 5 6 5 3 1 1 1 0 0 0 0 1 3 4 5 8 6 2 0 0 1 1 0 0 0 0 0 0 0 0 0
0 0 0 0 0 0 0 0 0 0 0 0 0 0 0 0 0 0 2 5 5 2 1 0 0 0 0 0 0 0 0 0 1 2 1 0 0 0 0 0 0 0 0 0 0 0 0 0 0
0 0 0 0 0 0 0 0 0 0 0 0 0 0 0 0 0 1 3 4 2 1 0 0 0 0 0 0 0 0 0 0 0 0 0 0 0 0 0 0 0 0 0 0 0 0 0 0 0
0 0 0 0 0 0 0 0 0 0 0 0 0 0 0 1 1 1 3 3 1 0 0 0 0 0 0 0 0 0 0 0 0 0 0 0 0 0 0 0 0 0 0 0 0 0 0 0 0
0 0 0 0 0 0 0 0 0 0 0 0 0 0 0 1 1 1 1 1 0 1 1 0 0 0 0 0 0 0 0 0 0 0 0 0 0 0 0 0 0 0 0 0 0 0 0 0 0
0 0 0 0 0 0 0 0 0 0 0 0 0 0 0 1 2 1 1 2 3 5 5 3 1 2 4 4 2 0 0 0 0 0 0 0 0 0 0 0 0 0 0 0 1 1 1 2 2
0 0 0 0 0 0 0 0 0 0 0 0 0 0 0 2 2 1 3 10 19 24 25 21 17 15 15 12 6 1 0 0 0 0 0 0 0 0 0 0 1 1 1 1 2 4 8 12 15
0 0 0 0 0 0 0 0 0 0 0 0 0 0 0 1 1 1 6 24 46 58 59 57 52 43 30 16 6 1 0 0 0 0 0 0 0 0 0 2 6 7 6 9 13 17 22 26 30
0 0 0 0 0 0 0 0 0 0 0 0 0 0 0 0 1 2 11 35 68 86 89 86 78 63 39 16 4 1 0 0 0 0 0 0 0 3 5 11 19 18 15 21 26 27 26 25 25
0 0 0 0 0 0 0 0 0 0 0 0 0 0 0 0 0 2 12 41 76 95 98 94 84 67 45 22 8 2 0 0 0 3 6 5 4 8 14 19 26 26 23 25 27 24 17 11 8
0 0 0 0 0 0 0 0 0 0 0 0 0 0 0 0 0 1 10 36 71 91 93 90 84 70 49 28 13 6 4 2 2 8 13 11 8 11 15 19 21 21 21 22 24 22 14 5 1
0 0 0 0 0 0 0 0 0 0 0 0 0 0 0 0 0 1 8 29 60 80 86 89 88 78 59 37 22 15 12 7 8 13 14 10 7 6 9 11 13 13 15 19 26 25 17 7 1
0 0 0 0 0 0 0 0 0 0 0 0 0 0 0 0 1 4 11 25 45 61 72 80 84 81 69 54 40 27 17 11 12 12 8 5 3 2 4 6 8 10 12 17 18 18 15 7 1
0 0 0 0 0 0 0 0 0 0 0 0 0 0 0 0 3 7 12 18 25 33 43 54 63 67 62 54 45 30 16 9 8 6 4 2 1 0 1 2 4 6 8 8 7 7 6 3 1
0 0 0 0 0 0 0 0 0 0 0 0 0 0 0 1 3 6 7 8 8 10 14 21 31 36 33 27 23 17 9 4 2 1 1 0 0 0 0 0 1 1 2 2 2 1 1 0 0
0 0 0 0 0 0 0 0 0 0 0 0 0 0 0 0 1 2 2 2 2 2 2 4 8 10 8 5 4 3 2 1 0 0 0 0 0 0 0 0 0 0 0 0 0 0 0 0 0
0 0 0 0 0 0 0 0 0 0 0 0 0 0 0 0 0 0 0 0 0 0 0 0 0 0 0 0 0 0 0 0 0 0 0 0 0 0 0 0 0 0 0 0 0 0 0 0 0
0 0 0 0 0 0 0 0 0 0 0 0 0 0 0 0 0 0 0 0 0 0 0 0 0 0 0 0 0 0 0 0 0 0 0 0 0 0 0 0 0 0 0 0 0 0 0 0 0
0 0 0 0 0 0 0 0 0 0 0 0 0 0 0 0 0 0 0 0 0 0 0 0 0 0 0 0 0 0 0 0 0 0 0 0 0 0 0 0 0 0 0 0 0 0 0 0 0
0 0 0 0 0 0 0 0 0 0 0 0 0 0 0 0 0 0 0 0 0 0 0 0 0 0 0 0 0 0 0 0 0 0 0 0 0 0 0 0 0 0 0 0 0 0 0 0 0
0 0 0 0 0 0 0 0 0 0 0 0 0 0 0 0 0 0 0 0 0 0 0 0 0 0 0 0 0 0 0 0 0 0 0 0 0 0 0 0 0 0 0 0 0 0 0 0 0

GEFSSGP_con_probscp_012.txt.gz
Probability
0 0 0 0 0 0 0 0 0 0 0 0 0 2 7 11 9 5 11 42 72 66 41 23 9 3 2 2 2 1 1 0 1 3 4 3 1 1 1 0 0 0 0 0 0 0 0 0 0
0 0 0 0 0 0 0 0 0 0 0 0 0 3 7 6 4 3 17 51 74 60 33 15 5 2 2 3 2 2 2 1 0 2 5 4 2 2 2 1 1 1 1 1 1 1 1 0 0
0 0 0 0 0 0 0 0 0 0 0 0 1 3 4 2 0 3 19 50 66 52 24 8 2 1 2 2 2 3 3 2 1 2 3 4 5 5 4 3 5 6 6 6 5 5 4 1 0
0 0 0 0 0 0 0 0 0 0 0 0 0 1 1 0 1 3 11 28 41 31 14 4 1 1 1 1 1 3 7 9 7 4 2 5 9 11 8 9 13 17 19 19 18 14 10 5 2
0 0 0 0 0 0 0 0 0 0 0 0 0 0 0 0 1 2 3 8 16 16 7 1 0 0 0 0 1 5 13 19 17 10 6 7 12 16 20 24 29 35 37 35 27 20 12 6 4
0 0 0 0 0 0 0 0 0 0 0 0 0 1 0 0 0 1 1 6 18 22 11 2 0 0 0 2 4 6 13 19 17 12 8 7 12 22 33 40 44 46 42 32 20 11 6 3 2
0 0 0 0 0 0 0 0 0 0 0 0 1 2 2 0 0 0 1 11 30 36 22 7 2 0 1 2 4 4 7 10 9 6 5 7 16 29 36 38 38 35 26 15 6 2 0 0 0
0 0 0 0 0 0 0 0 0 0 0 0 1 3 4 2 0 2 8 21 38 43 32 15 4 1 1 1 1 1 2 3 2 1 2 6 17 24 23 20 18 13 8 4 1 0 0 0 0
0 0 0 0 0 0 0 0 0 0 0 0 3 8 8 3 2 9 23 35 43 43 32 19 9 3 0 0 0 0 0 0 0 0 1 4 8 9 7 5 4 2 1 0 0 0 0 0 0
0 0 0 0 0 0 0 0 0 0 0 1 9 16 13 5 6 19 35 42 43 36 22 14 10 4 0 0 0 0 0 0 1 2 2 2 3 3 2 0 0 0 0 0 0 0 0 0 0
0 0 0 0 0 0 0 0 0 0 0 2 11 19 15 7 10 24 35 36 33 23 11 7 9 10 8 4 0 0 0 2 7 9 6 3 4 6 5 2 0 0 0 0 0 0 0 0 0
0 0 0 0 0 0 0 0 0 0 0 1 8 15 12 5 8 20 28 26 20 13 11 17 27 35 34 22 9 3 3 7 15 16 8 2 2 4 5 3 1 0 0 0 0 0 0 0 0
0 0 0 0 0 0 0 0 0 0 0 1 4 7 6 2 5 15 23 20 14 18 31 47 62 67 59 42 22 8 7 11 16 13 5 0 0 2 2 1 0 0 0 2 2 1 0 0 0
0 0 0 0 0 0 0 0 0 0 0 0 1 2 2 2 5 15 24 25 26 41 65 78 82 76 58 40 23 10 6 8 9 6 2 0 0 1 1 2 1 1 3 5 4 3 4 4 2
0 0 0 0 0 0 0 0 0 0 0 0 0 0 0 1 4 12 29 43 53 69 83 81 74 69 58 41 26 15 11 10 9 5 2 0 0 2 7 14 15 13 13 13 15 20 23 21 19
0 0 0 0 0 0 0 0 0 0 0 0 0 0 2 4 7 15 37 59 68 71 70 60 58 70 75 65 49 38 32 28 21 13 8 3 1 3 18 37 45 42 38 36 40 50 53 49 49
0 0 0 0 0 0 0 0 0 0 0 0 0 1 7 17 24 31 47 60 59 51 42 41 56 76 87 84 76 69 61 50 40 36 31 20 12 15 34 59 72 71 68 64 63 67 71 69 67
0 0 0 0 0 0 0 0 0 0 0 0 1 3 13 27 39 47 56 61 54 40 32 41 64 83 91 92 90 89 82 70 62 63 60 48 39 42 55 70 79 81 81 77 72 71 72 71 69
0 0 0 0 0 0 0 0 0 0 0 1 3 9 17 26 40 57 70 72 65 53 48 58 77 91 97 98 97 96 91 85 80 80 78 70 62 60 63 69 74 76 76 74 72 68 63 58 56
0 0 0 0 0 0 0 0 0 0 0 2 4 11 19 28 46 69 82 82 77 73 74 81 90 96 97 98 98 98 96 91 87 85 78 68 59 51 48 55 61 61 59 59 58 52 43 35 34
0 0 0 0 0 0 0 0 0 0 0 1 4 12 25 42 61 75 78 73 70 74 81 85 87 88 87 88 90 92 91 86 81 75 63 48 37 31 32 36 41 41 36 33 32 28 21 17 16
0 0 0 0 0 0 0 0 1 1 1 2 7 18 35 54 63 61 52 44 43 50 60 65 66 64 62 62 64 66 65 62 57 50 39 27 21 20 21 25 28 27 20 15 13 11 9 7 6
0 0 0 0 0 0 0 0 2 5 5 5 11 23 39 49 46 33 22 16 16 22 30 37 39 35 30 28 29 30 28 28 26 22 17 14 13 14 15 19 22 19 14 11 9 6 4 3 1
0 0 0 0 0 0 0 0 4 11 15 13 12 19 28 29 22 12 5 3 3 5 10 15 16 13 10 8 8 7 6 7 6 5 4 5 7 8 11 13 14 12 9 8 6 3 2 1 0
0 0 0 0 0 0 0 3 11 23 30 26 15 12 13 10 6 3 0 0 0 1 3 4 3 3 2 2 1 1 1 1 1 0 1 2 2 4 7 7 6 5 5 4 2 1 0 0 0
0 0 0 0 0 0 0 5 18 33 43 36 18 7 4 3 1 0 0 0 0 0 1 1 0 0 0 0 0 0 0 0 0 0 0 0 0 1 3 3 3 2 1 1 0 0 0 0 0
0 0 0 0 0 0 1 6 18 35 45 36 16 4 2 2 1 0 0 0 0 0 0 0 0 0 0 0 0 0 0 0 0 0 0 0 0 0 1 1 1 0 0 0 0 0 0 0 0
0 0 0 0 0 0 1 6 19 31 37 28 11 2 1 1 0 0 0 0 0 0 0 0 0 0 0 0 0 0 0 0 0 0 0 0 0 0 0 0 0 0 0 0 0 0 0 0 0
0 0 0 0 0 0 1 5 15 26 28 18 6 1 0 0 0 0 0 0 0 0 0 0 0 0 0 0 0 0 0 0 0 0 0 0 0 0 0 0 0 0 0 0 0 0 0 0 0
0 0 0 0 0 0 1 3 9 19 22 13 3 0 0 0 0 0 0 0 0 0 0 0 0 0 0 0 0 0 0 0 0 0 0 0 0 0 0 0 0 0 0 0 0 0 0 0 0

GEFSSGP_con_probscp_018.txt.gz
Probability
0 0 0 0 0 0 0 0 0 0 0 1 4 11 14 8 2 1 1 3 4 3 1 2 7 12 11 9 7 5 5 5 5 3 1 0 1 2 2 1 1 1 1 0 0 0 0 0 0
0 0 0 0 0 0 0 0 0 0 0 0 3 8 10 6 3 2 1 1 2 1 0 1 3 5 6 5 5 3 2 3 3 2 0 0 0 1 1 0 0 0 0 0 0 0 0 0 0
0 0 0 0 0 0 0 0 0 0 0 0 1 2 3 3 2 1 0 0 0 0 0 0 0 1 2 4 4 2 1 1 1 0 0 0 0 0 0 0 0 0 0 0 0 0 0 0 0
0 0 0 0 0 0 0 0 0 0 0 0 0 0 0 2 4 3 1 0 0 0 0 0 0 1 5 9 9 6 4 2 1 0 0 0 0 0 0 0 0 0 0 0 0 0 1 1 0
0 0 0 0 0 0 0 0 0 0 0 0 0 0 1 7 14 10 2 0 0 0 0 0 1 5 12 17 17 13 8 6 3 1 1 0 0 0 0 0 0 0 0 0 0 0 1 1 1
0 0 0 0 0 0 0 0 0 0 0 0 0 0 2 13 22 14 3 1 0 1 1 1 2 8 17 21 18 14 11 8 5 3 1 0 0 0 0 0 0 0 0 0 0 0 1 1 0
0 0 0 0 0 0 0 0 0 0 0 0 0 0 4 16 23 17 7 3 2 3 3 2 2 6 13 14 11 9 8 6 4 3 2 1 0 0 0 0 0 0 0 0 0 0 0 0 0
0 0 0 0 0 0 0 0 0 0 1 1 0 1 7 19 30 29 23 14 8 5 4 2 1 2 4 4 3 3 4 4 3 4 4 3 1 0 0 0 0 0 0 0 0 0 0 0 0
0 0 0 0 0 0 0 0 1 3 4 4 4 7 19 36 49 53 48 32 14 5 2 1 0 0 0 0 0 0 1 2 3 4 5 4 1 0 0 0 0 0 0 0 0 0 0 0 0
0 0 0 0 0 0 0 1 3 6 8 8 11 18 34 53 67 71 61 39 19 7 3 0 0 0 0 0 0 0 0 1 1 2 2 2 1 0 0 0 0 0 0 0 0 0 0 0 0
0 0 0 0 0 0 0 1 3 7 8 9 15 25 40 56 67 67 55 37 21 12 6 2 0 0 0 0 0 0 0 0 0 0 0 0 0 0 0 0 0 0 0 0 0 0 0 0 0
0 0 0 0 0 0 0 1 2 4 5 7 14 25 36 46 52 51 44 32 20 12 7 2 0 0 0 0 0 0 0 0 0 0 0 0 0 0 0 0 0 0 0 0 0 0 0 0 0
0 0 0 0 0 0 0 0 1 2 4 8 15 23 31 37 41 43 40 30 18 9 4 2 0 0 0 0 0 0 0 0 0 0 0 0 0 0 0 0 0 0 0 0 0 0 0 0 0
0 0 0 0 0 0 0 0 0 1 5 11 18 22 24 32 39 42 38 29 17 8 3 1 1 0 0 0 0 0 0 0 0 0 0 0 0 0 0 0 0 0 0 0 0 0 0 0 0
0 0 0 0 0 0 0 0 0 2 6 13 21 23 23 29 39 41 35 27 17 8 2 1 1 1 1 0 0 0 1 0 0 0 0 0 0 0 0 0 0 0 0 0 0 0 0 0 0
0 0 0 0 0 0 0 0 1 3 9 18 27 32 30 30 32 32 28 24 17 8 3 1 1 2 1 0 0 0 0 0 0 0 0 0 0 0 0 0 0 0 0 0 0 0 0 0 0
0 0 0 0 0 0 0 0 1 7 17 30 40 44 40 33 26 21 20 18 14 8 4 2 3 4 2 0 0 0 0 0 0 0 0 0 0 0 0 0 0 0 0 0 0 0 0 0 0
0 0 0 0 0 0 0 0 2 11 27 45 56 59 54 41 27 17 13 11 8 6 5 4 4 4 3 1 0 0 0 0 0 0 0 0 0 0 0 0 0 0 0 0 0 0 0 0 0
0 0 0 0 0 0 0 0 2 11 30 54 70 75 70 55 35 20 12 7 4 4 5 4 3 2 1 0 0 0 0 0 0 0 0 0 0 0 0 0 0 0 0 0 0 0 0 0 0
0 0 0 0 0 0 0 0 1 7 24 52 75 84 82 68 46 26 13 6 4 3 3 2 1 0 0 0 0 0 0 0 0 0 0 0 0 0 0 0 0 0 0 0 0 0 0 0 0
0 0 0 0 0 0 0 0 2 8 25 52 72 80 79 69 51 30 14 6 3 2 1 0 0 0 0 0 0 0 0 0 0 0 0 0 0 0 0 0 0 0 0 0 0 0 0 0 0
0 0 0 0 0 0 0 0 4 16 36 54 64 66 64 55 42 25 11 5 2 1 0 0 0 0 0 0 0 0 0 0 0 0 0 0 0 0 0 0 0 0 0 0 0 0 0 0 0
0 0 0 0 0 0 0 0 5 22 43 55 55 52 45 34 23 13 6 2 1 0 0 0 0 0 0 0 0 0 0 0 0 0 0 0 0 0 0 0 0 0 0 0 0 0 0 0 0
0 0 0 0 0 0 0 0 4 19 42 55 53 41 27 17 8 3 1 1 0 0 0 0 0 0 0 0 0 0 0 0 0 0 0 0 0 0 0 0 0 0 0 0 0 0 0 0 0
0 0 0 0 0 0 0 0 2 15 39 54 46 27 13 6 2 0 0 0 0 0 0 0 0 0 0 0 0 0 0 0 0 0 0 0 0 0 0 0 0 0 0 0 0 0 0 0 0
0 0 0 0 0 0 0 0 2 15 34 41 28 13 4 1 0 0 0 0 0 0 0 0 0 0 0 0 0 0 0 0 0 0 0 0 0 0 0 0 0 0 0 0 0 0 0 0 0
0 0 0 0 0 0 0 0 3 15 28 27 14 3 0 0 0 0 0 0 0 0 0 0 0 0 0 0 0 0 0 0 0 0 0 0 0 0 0 0 0 0 0 0 0 0 0 0 0
0 0 0 0 0 0 0 0 3 14 26 24 10 2 0 0 0 0 0 0 0 0 0 0 0 0 0 0 0 0 0 0 0 0 0 0 0 0 0 0 0 0 0 0 0 0 0 0 0
0 0 0 0 0 0 0 0 3 12 21 19 9 2 0 0 0 0 0 0 0 0 0 0 0 0 0 0 0 0 0 0 0 0 0 0 0 0 0 0 0 0 0 0 0 0 0 0 0
0 0 0 0 0 0 0 0 2 9 16 14 6 1 0 0 0 0 0 0 0 0 0 0 0 0 0 0 0 0 0 0 0 0 0 0 0 0 0 0 0 0 0 0 0 0 0 0 0

GEFSSGP_con_probscp_024.txt.gz
Probability
0 0 0 0 0 0 0 0 0 0 0 0 0 0 0 0 0 0 1 0 0 0 0 0 0 2 8 14 11 5 1 0 0 0 0 0 0 0 0 0 0 0 0 0 0 0 0 0 0
0 0 0 0 0 0 0 0 0 0 0 0 0 0 0 0 0 0 1 0 0 0 0 0 0 1 5 7 6 3 1 0 0 0 0 0 0 0 0 0 0 0 0 0 0 0 0 0 0
0 0 0 0 0 0 0 0 0 0 0 0 0 0 0 0 0 0 0 0 0 0 0 0 0 0 2 3 2 1 0 0 0 0 0 0 0 0 0 0 0 0 0 0 0 0 0 0 0
0 0 0 0 0 0 0 0 0 0 0 0 0 0 0 0 0 0 0 0 0 0 0 0 0 0 2 4 3 2 0 0 0 0 0 0 0 0 0 0 0 0 0 0 0 0 1 1 2
0 0 0 0 0 0 0 0 0 0 0 0 0 0 0 0 1 1 1 0 0 0 0 0 0 1 3 5 5 3 1 0 0 0 0 0 0 0 0 0 0 0 0 0 0 0 1 2 4
0 0 0 0 0 0 0 0 0 0 0 0 1 2 1 0 1 2 2 1 1 0 0 0 0 1 2 4 5 4 2 1 1 1 0 0 0 0 0 0 0 0 0 0 0 0 1 1 2
0 0 0 0 0 0 0 0 0 0 0 0 1 2 1 1 3 5 5 4 2 1 0 0 0 1 2 4 5 4 4 3 3 2 1 0 0 0 0 1 1 1 1 0 0 0 0 0 0
0 0 0 0 0 0 0 0 0 0 0 0 1 2 4 7 11 14 12 8 4 2 1 1 1 1 2 4 5 5 5 4 4 3 1 0 0 0 0 1 2 2 1 0 0 0 0 0 0
0 0 0 0 0 0 0 0 0 0 0 1 3 9 18 25 25 22 18 13 7 3 2 2 1 0 1 1 3 4 3 2 2 2 1 0 0 0 0 1 1 1 1 0 0 0 0 0 0
0 0 0 0 0 0 0 0 0 0 1 5 14 31 47 46 33 22 16 13 8 4 2 1 0 0 0 0 1 1 1 0 0 0 0 0 0 0 0 0 0 0 0 0 0 0 0 0 0
0 0 0 0 0 0 0 0 0 0 1 12 35 61 71 58 35 18 11 8 5 3 2 1 0 0 0 0 0 0 0 0 0 0 0 0 0 0 0 0 0 0 0 0 0 0 0 0 0
0 0 0 0 0 0 0 0 0 0 3 21 55 81 82 64 37 17 8 5 2 1 1 0 0 0 0 0 0 0 0 0 0 0 0 0 0 0 0 0 0 0 0 0 0 0 0 0 0
0 0 0 0 0 0 0 0 0 2 10 35 68 88 85 68 42 21 10 4 1 0 0 0 0 0 0 0 0 0 0 0 0 0 0 0 0 0 0 0 0 0 0 0 0 0 0 0 0
0 0 0 0 0 0 0 0 0 4 22 52 77 87 83 67 44 26 14 5 1 0 0 0 0 0 0 0 0 0 0 0 0 0 0 0 0 0 0 0 0 0 0 0 0 0 0 0 0
0 0 0 0 0 0 0 0 0 7 31 61 79 83 79 63 44 29 17 7 1 0 0 0 0 0 0 0 0 0 0 0 0 0 0 0 0 0 0 0 0 0 0 0 0 0 0 0 0
0 0 0 0 0 0 0 0 0 7 30 57 75 79 73 59 41 28 17 7 2 1 0 0 0 0 0 0 0 0 0 0 0 0 0 0 0 0 0 0 0 0 0 0 0 0 0 0 0
0 0 0 0 0 0 0 0 1 6 23 47 66 71 65 54 38 25 16 8 3 1 0 0 0 0 0 0 0 0 0 0 0 0 0 0 0 0 0 0 0 0 0 0 0 0 0 0 0
0 0 0 0 0 0 0 0 2 7 18 37 53 59 56 46 32 19 12 7 3 1 0 0 0 0 0 0 0 0 0 0 0 0 0 0 0 0 0 0 0 0 0 0 0 0 0 0 0
0 0 0 0 0 0 0 0 3 8 17 29 40 46 45 35 20 11 7 3 1 0 0 0 0 0 0 0 0 0 0 0 0 0 0 0 0 0 0 0 0 0 0 0 0 0 0 0 0
0 0 0 0 0 0 0 0 3 8 15 23 29 32 30 21 11 6 3 1 0 0 0 0 0 0 0 0 0 0 0 0 0 0 0 0 0 0 0 0 0 0 0 0 0 0 0 0 0
0 0 0 0 0 0 0 0 2 6 13 18 19 19 17 13 9 5 3 1 0 0 0 0 0 0 0 0 0 0 0 0 0 0 0 0 0 0 0 0 0 0 0 0 0 0 0 0 0
0 0 0 0 0 0 0 0 1 5 11 15 16 17 17 15 12 8 4 1 0 0 0 0 0 0 0 0 0 0 0 0 0 0 0 0 0 0 0 0 0 0 0 0 0 0 0 0 0
0 0 0 0 0 0 0 0 1 4 11 18 26 32 32 26 18 10 4 1 0 0 0 0 0 0 0 0 0 0 0 0 0 0 0 0 0 0 0 0 0 0 0 0 0 0 0 0 0
0 0 0 0 0 0 0 0 1 2 9 25 43 55 52 38 22 10 2 0 0 0 0 0 0 0 0 0 0 0 0 0 0 0 0 0 0 0 0 0 0 0 0 0 0 0 0 0 0
0 0 0 0 0 0 0 0 0 1 6 25 51 69 63 43 22 9 2 0 0 0 0 0 0 0 0 0 0 0 0 0 0 0 0 0 0 0 0 0 0 0 0 0 0 0 0 0 0
0 0 0 0 0 0 0 0 0 0 4 21 49 66 59 38 18 6 1 0 0 0 0 0 0 0 0 0 0 0 0 0 0 0 0 0 0 0 0 0 0 0 0 0 0 0 0 0 0
0 0 0 0 0 0 0 0 0 1 6 22 45 57 47 29 13 4 0 0 0 0 0 0 0 0 0 0 0 0 0 0 0 0 0 0 0 0 0 0 0 0 0 0 0 0 0 0 0
0 0 0 0 0 0 0 0 0 1 8 26 43 47 36 20 8 2 0 0 0 0 0 0 0 0 0 0 0 0 0 0 0 0 0 0 0 0 0 0 0 0 0 0 0 0 0 0 0
0 0 0 0 0 0 0 0 0 1 7 22 37 37 24 11 4 0 0 0 0 0 0 0 0 0 0 0 0 0 0 0 0 0 0 0 0 0 0 0 0 0 0 0 0 0 0 0 0
0 0 0 0 0 0 0 0 0 0 4 16 29 28 16 6 1 0 0 0 0 0 0 0 0 0 0 0 0 0 0 0 0 0 0 0 0 0 0 0 0 0 0 0 0 0 0 0 0

GEFSSGP_con_probscp_030.txt.gz
Probability
0 0 0 0 0 0 0 0 0 0 0 0 0 0 0 0 0 0 0 0 0 0 0 0 0 0 0 0 0 0 1 4 6 6 5 3 1 0 0 0 0 0 0 0 0 0 0 0 0
0 0 0 0 0 0 0 0 0 0 0 0 0 0 0 0 0 0 0 0 0 0 0 0 0 0 0 0 0 0 0 1 2 3 2 1 0 0 0 0 0 0 0 0 0 0 0 0 0
0 0 0 0 0 0 0 0 0 0 0 0 0 0 0 0 0 0 0 0 0 0 0 0 0 0 0 0 0 0 0 0 0 0 0 0 0 0 0 0 0 0 0 0 0 0 0 0 0
0 0 0 0 0 0 0 0 0 0 0 0 0 0 0 0 0 1 1 0 0 0 0 0 0 0 0 0 0 0 0 0 0 0 0 0 0 0 0 0 0 0 0 0 0 0 0 0 0
0 0 0 0 0 0 0 0 0 0 0 0 0 0 0 0 1 3 3 2 0 0 0 0 0 0 0 0 0 1 1 0 0 0 0 0 0 0 0 0 0 0 0 0 0 0 0 0 0
0 0 0 0 0 0 0 0 0 0 0 0 0 0 0 1 3 5 5 3 1 0 0 0 0 0 0 0 0 1 1 0 0 0 0 0 0 0 0 0 0 0 0 0 0 0 0 0 0
0 0 0 0 0 0 0 0 0 0 0 0 0 0 0 1 4 6 5 4 2 0 0 0 0 0 0 0 0 1 1 0 0 0 0 0 0 0 0 0 0 0 0 0 1 1 0 0 0
0 0 0 0 0 0 0 0 0 0 0 0 0 0 1 3 4 4 3 2 1 0 0 0 0 0 0 0 0 0 0 0 0 0 0 0 0 0 0 0 0 0 0 0 1 1 0 0 0
0 0 0 0 0 0 0 0 0 0 0 0 0 0 2 5 6 5 3 1 0 1 0 0 0 0 0 0 0 0 0 0 0 0 0 0 0 0 0 0 0 0 0 0 1 1 0 0 0
0 0 0 0 0 0 0 0 0 0 0 0 0 0 2 5 7 5 3 1 2 3 1 0 0 0 0 0 0 0 0 0 0 0 0 0 0 0 0 0 0 0 0 0 0 0 0 0 0
0 0 0 0 0 0 0 0 0 0 0 0 0 1 4 7 6 3 1 1 3 4 2 0 0 0 0 0 0 0 0 0 0 0 0 0 0 0 0 0 0 0 0 0 0 0 0 0 0
0 0 0 0 0 0 0 0 0 0 0 0 1 4 9 10 6 3 1 1 3 5 3 0 0 0 0 0 0 0 0 0 0 0 0 0 0 0 0 0 0 0 0 0 0 0 0 0 0
0 0 0 0 0 0 0 0 0 0 0 0 2 8 15 15 10 7 5 5 6 4 2 0 0 1 1 0 0 0 0 0 0 0 0 0 0 0 0 1 1 1 0 1 1 0 0 0 0
0 0 0 0 0 0 0 0 0 0 0 0 2 8 17 22 20 15 14 15 13 7 3 1 1 2 2 1 0 0 0 0 1 1 0 0 0 0 0 1 2 1 1 1 1 1 1 1 1
0 0 0 0 0 0 0 0 1 1 1 0 2 8 21 33 37 32 31 31 25 16 10 5 3 4 5 3 1 0 0 0 1 1 1 0 0 0 0 1 2 2 1 1 1 1 2 2 2
0 0 0 0 0 0 0 0 1 1 1 1 4 12 31 51 59 58 57 53 41 29 20 12 6 7 8 9 8 5 4 3 2 1 1 2 2 2 2 2 3 3 2 2 2 3 3 4 4
0 0 0 0 0 0 0 0 1 1 1 3 9 22 44 66 77 81 80 72 57 44 34 25 18 16 16 18 17 13 10 7 4 3 3 3 3 3 3 4 4 4 3 3 4 5 5 5 4
0 0 0 0 0 0 0 0 0 0 1 5 15 32 54 71 83 88 87 79 68 58 50 43 36 30 26 24 21 16 12 9 6 4 3 2 1 2 2 3 3 3 3 4 5 6 5 3 2
0 0 0 0 0 0 0 0 0 1 2 7 18 38 59 73 82 85 81 75 71 67 62 57 49 39 30 25 19 14 10 7 4 3 1 0 0 0 1 1 1 1 2 3 3 3 2 1 0
0 0 0 0 0 0 0 0 1 2 6 11 22 40 60 75 82 78 72 67 65 65 63 57 48 37 26 20 14 9 6 4 1 1 0 0 0 0 0 0 0 0 1 1 1 0 0 0 0
0 0 0 0 0 0 0 0 1 4 9 17 28 41 57 74 79 69 59 54 53 53 50 44 37 28 19 13 7 4 2 1 0 0 0 0 0 0 0 0 0 0 0 0 0 0 0 0 0
0 0 0 0 0 0 0 0 0 2 7 15 26 38 52 68 72 60 48 42 38 35 32 28 23 19 14 8 4 1 0 0 0 0 0 0 0 0 0 0 0 0 0 0 0 0 0 0 0
0 0 0 0 0 0 0 0 0 1 2 7 19 35 50 62 62 50 38 30 24 20 18 17 15 13 10 7 4 2 0 0 0 0 0 0 0 0 0 0 0 0 0 0 0 0 0 0 0
0 0 0 0 0 0 0 0 0 0 0 2 13 33 53 62 55 40 26 18 13 11 11 11 11 9 7 5 3 1 0 0 0 0 0 0 0 0 0 0 0 0 0 0 0 0 0 0 0
0 0 0 0 0 0 0 0 0 0 0 1 10 32 58 65 52 32 18 10 7 7 8 8 7 6 5 4 2 1 0 0 0 0 0 0 0 0 0 0 0 0 0 0 0 0 0 0 0
0 0 0 0 0 0 0 0 0 0 0 2 11 33 59 63 46 26 13 6 4 4 4 5 4 4 3 3 3 2 0 0 0 0 0 0 0 0 0 0 0 0 0 0 0 0 0 0 0
0 0 0 0 0 0 0 0 0 0 1 3 13 36 58 58 40 21 9 4 2 1 2 3 3 3 2 2 2 1 0 0 0 0 0 0 0 0 0 0 0 0 0 0 0 0 0 0 0
0 0 0 0 0 0 0 0 0 1 2 5 15 38 59 57 37 17 6 2 1 0 1 1 2 1 1 1 1 0 0 0 0 0 0 0 0 0 0 0 0 0 0 0 0 0 0 0 0
0 0 0 0 0 0 0 0 0 1 3 5 14 38 61 60 37 14 3 1 0 0 0 0 0 0 0 0 0 0 0 0 0 0 0 0 0 0 0 0 0 0 0 0 0 0 0 0 0
0 0 0 0 0 0 0 0 0 1 3 4 13 38 63 63 38 13 2 0 0 0 0 0 0 0 0 0 0 0 0 0 0 0 0 0 0 0 0 0 0 0 0 0 0 0 0 0 0

GEFSSGP_con_probscp_036.txt.gz
Probability
0 0 0 0 0 0 0 0 1 1 1 0 0 1 4 6 5 3 8 25 36 21 9 9 9 7 6 7 7 5 3 3 3 3 3 3 3 3 3 3 3 3 3 3 3 3 3 3 3
0 0 0 0 0 0 0 0 1 1 0 0 0 0 1 2 3 3 8 21 25 15 6 6 6 5 5 5 5 4 3 3 3 3 3 3 3 3 3 3 3 3 3 3 3 3 3 3 3
0 0 0 0 0 0 0 0 0 0 0 0 0 0 0 0 1 2 6 12 12 7 4 3 3 3 3 3 4 3 3 3 3 3 3 3 3 3 3 3 3 3 3 3 3 3 3 3 3
0 0 0 0 0 0 0 0 0 0 0 0 0 0 0 1 2 3 5 6 5 4 3 3 3 3 3 3 3 3 3 3 3 3 3 3 3 3 3 3 3 3 3 3 3 3 3 3 3
0 0 0 0 0 0 0 0 0 0 0 0 0 0 1 3 5 5 4 4 4 4 4 3 3 3 3 3 3 2 3 3 3 3 3 3 3 3 3 3 3 3 3 3 3 3 3 3 3
0 0 0 0 0 0 0 1 1 1 0 0 0 0 2 6 7 5 3 4 7 9 6 4 3 3 3 3 3 3 3 3 3 3 3 3 3 3 3 3 3 3 3 3 3 3 3 3 2
0 0 0 0 0 0 0 1 2 1 0 0 0 0 3 8 8 4 3 5 11 15 11 5 3 3 3 3 3 3 3 3 3 3 3 3 3 3 3 3 3 3 3 3 3 3 2 1 1
0 0 0 0 0 0 0 0 2 2 1 0 0 0 5 9 7 4 4 6 13 18 14 6 3 3 3 3 3 3 3 3 3 3 3 3 3 3 3 3 3 3 3 2 2 1 1 0 0
0 0 0 0 0 0 0 1 2 2 0 0 0 2 6 8 6 3 4 7 13 19 17 12 10 7 4 4 4 3 3 3 3 3 3 3 3 3 3 3 3 3 1 1 1 0 0 0 0
0 0 0 0 0 0 0 1 2 1 0 0 2 5 8 6 3 3 4 9 15 18 19 22 22 13 7 6 5 4 3 3 3 3 3 3 3 3 3 4 3 2 1 0 0 0 0 0 0
0 0 0 0 0 0 0 0 1 1 1 1 4 9 10 7 4 3 6 12 17 16 17 26 30 21 13 11 7 4 4 3 3 3 3 3 3 3 4 4 4 3 1 1 0 0 0 0 0
0 0 0 0 0 0 0 0 0 1 1 2 5 10 13 11 7 6 11 20 24 21 18 26 37 37 33 26 15 8 6 5 5 5 4 3 3 3 4 5 5 3 3 2 2 2 1 0 0
0 0 0 0 0 0 0 0 1 1 1 3 5 9 14 14 10 11 21 34 43 42 36 40 55 65 67 56 35 23 21 18 16 13 9 7 8 11 14 13 10 7 9 11 12 10 7 5 4
0 0 0 0 0 0 0 0 1 2 2 2 3 5 9 13 16 23 38 55 69 72 69 70 79 88 89 76 57 48 47 45 42 37 30 22 24 31 33 30 25 24 26 28 26 22 20 16 12
0 0 0 0 0 0 0 0 1 2 2 1 1 2 6 12 23 40 59 77 88 92 93 92 94 97 95 81 70 66 69 71 73 70 58 44 43 48 52 51 48 48 47 43 39 35 33 29 24
0 0 0 0 0 0 0 0 0 1 3 3 3 3 6 14 28 50 74 90 97 99 99 98 98 99 97 89 82 80 82 88 91 88 76 61 55 56 61 64 62 59 54 49 43 39 36 33 30
0 0 0 0 0 0 0 0 0 1 4 4 4 4 8 17 32 56 80 95 100 100 100 99 99 100 99 97 95 93 94 94 92 87 78 68 60 57 59 61 57 51 47 42 36 31 28 26 25
0 0 0 0 0 0 0 0 0 1 3 4 3 4 8 20 41 65 84 96 99 99 100 100 100 100 100 100 99 97 94 89 83 79 72 62 53 46 44 43 39 34 30 27 22 18 15 14 14
0 0 0 0 0 0 0 0 0 0 1 2 2 3 7 23 50 75 90 97 98 98 99 100 100 100 100 100 98 94 87 79 69 61 53 43 33 26 23 21 19 15 12 11 10 7 5 4 4
0 0 0 0 0 0 0 0 0 0 0 1 1 1 7 26 56 82 95 99 98 98 99 100 100 100 100 98 94 88 79 66 51 38 28 20 13 10 8 7 5 3 2 2 2 1 0 0 0
0 0 0 0 0 0 0 0 0 0 0 0 0 0 5 25 56 84 97 100 99 99 100 100 100 99 97 94 87 77 66 50 33 20 12 6 3 2 1 1 0 0 0 0 0 1 0 0 0
0 0 0 0 0 0 0 0 0 0 0 0 0 0 4 22 53 83 97 100 99 98 98 98 96 94 91 87 80 70 55 39 23 12 5 2 0 0 0 0 0 0 0 0 0 0 0 0 0
0 0 0 0 0 0 0 0 0 0 0 0 0 1 5 21 53 84 97 98 96 91 88 86 83 80 77 75 72 64 50 33 18 7 1 0 0 0 0 0 0 0 0 0 0 0 0 0 0
0 0 0 0 0 0 0 0 0 0 0 0 1 4 11 29 60 86 95 92 85 77 69 63 59 56 54 52 51 47 37 23 10 3 0 0 0 0 0 0 0 0 0 0 0 0 0 0 0
0 0 0 0 0 0 0 0 0 0 0 1 3 8 20 42 68 87 90 82 70 58 48 39 33 31 28 26 26 23 17 10 4 0 0 0 0 0 0 0 0 0 0 0 0 0 0 0 0
0 0 0 0 0 0 0 0 0 0 0 1 4 10 25 50 72 84 80 67 53 40 29 21 17 14 12 11 10 9 6 3 1 0 0 0 0 0 0 0 0 0 0 0 0 0 0 0 0
0 0 0 0 0 0 0 0 0 0 0 1 3 10 27 52 73 77 67 52 36 23 14 10 8 7 6 6 5 4 3 1 0 0 0 0 0 0 0 0 0 0 0 0 0 0 0 0 0
0 0 0 0 0 0 0 0 0 0 0 0 3 13 32 57 72 69 55 38 24 13 7 5 3 3 3 3 3 2 1 1 0 0 0 0 0 0 0 0 0 0 0 0 0 0 0 0 0
0 0 0 0 0 0 0 0 0 0 0 0 4 18 41 62 69 62 46 29 16 8 4 2 1 1 1 1 1 0 0 0 0 0 0 0 0 0 0 0 0 0 0 0 0 0 0 0 0
0 0 0 0 0 0 0 0 0 0 0 0 5 22 47 66 68 57 41 24 12 5 2 0 0 0 0 0 0 0 0 0 0 0 0 0 0 0 0 0 0 0 0 0 0 0 0 0 0

GEFSSGP_con_probscp_042.txt.gz
Probability
0 0 0 0 0 0 0 0 0 0 0 0 1 1 1 0 0 0 0 0 1 2 3 6 11 15 15 15 14 13 8 4 2 1 0 1 3 6 8 7 4 1 0 0 0 0 0 0 0
0 0 0 0 0 0 0 0 0 0 0 0 0 1 1 0 0 0 0 0 1 2 2 4 6 8 9 8 7 6 4 2 1 0 0 0 2 4 6 5 3 1 0 0 0 0 0 0 0
0 0 0 0 0 0 0 0 0 0 0 0 0 1 1 0 0 0 0 0 1 1 0 1 1 2 2 2 1 1 0 0 0 0 0 0 0 1 3 3 1 1 0 0 0 0 0 0 0
0 0 0 0 0 0 0 0 0 0 0 1 2 2 2 1 2 1 0 0 0 0 0 0 0 0 0 0 0 0 0 0 0 0 0 0 0 0 1 1 0 0 0 0 0 0 0 0 0
0 0 0 0 0 0 0 0 0 0 1 3 5 5 4 5 8 5 1 0 0 0 0 0 1 0 0 0 0 0 0 0 0 0 0 0 0 0 0 0 0 0 0 0 0 0 0 0 0
0 0 0 0 0 0 0 0 0 0 1 4 8 8 7 10 12 7 2 1 0 0 0 0 0 0 0 0 0 0 0 0 0 0 0 0 0 0 0 0 0 0 0 0 0 0 0 0 0
0 0 0 0 0 0 0 0 0 0 0 3 8 10 9 9 10 7 3 1 0 0 0 0 0 0 0 0 0 0 0 0 0 0 0 0 0 0 0 0 0 0 0 0 0 0 0 0 0
0 0 0 0 0 0 0 0 0 0 0 2 6 8 7 5 9 12 9 4 1 0 0 0 1 1 1 0 0 0 0 0 0 0 0 0 0 0 0 0 0 0 0 0 0 0 0 0 0
0 0 0 0 0 0 0 0 0 1 2 5 7 6 3 4 12 23 24 15 6 2 1 1 2 2 2 1 0 0 0 0 0 0 0 0 0 0 0 0 0 0 0 0 0 0 0 0 0
0 0 0 0 0 0 0 0 0 2 6 11 14 11 7 6 15 32 42 33 19 9 4 3 3 3 2 1 0 0 0 0 0 0 0 0 0 0 0 0 0 0 0 0 0 0 0 0 0
0 0 0 0 0 0 0 0 0 2 7 16 21 21 17 14 17 35 51 50 35 20 12 8 5 4 3 2 1 0 0 0 0 0 0 0 0 0 0 0 0 0 0 0 0 0 0 0 0
0 0 0 0 0 0 0 0 0 1 8 19 28 31 28 22 20 30 49 60 53 39 28 19 11 7 5 4 3 1 0 0 0 0 0 0 0 0 0 0 0 0 0 0 0 0 0 0 0
0 0 0 0 0 0 0 0 0 1 9 24 34 37 33 27 23 27 45 64 68 62 51 39 28 17 11 8 5 3 1 0 0 0 0 0 0 0 0 0 0 0 0 0 0 0 0 0 0
0 0 0 0 0 0 0 0 0 3 12 25 34 35 32 27 25 31 48 65 75 76 71 61 50 37 25 16 11 7 3 1 0 0 0 0 0 0 0 0 0 0 0 0 0 0 0 0 0
0 0 0 0 0 0 0 0 0 4 13 22 28 30 27 23 25 34 50 66 77 82 80 75 71 62 48 33 24 18 11 6 4 2 2 2 2 2 2 1 0 0 0 0 0 0 0 0 0
0 0 0 0 0 0 0 0 0 3 9 15 19 22 20 19 22 31 48 66 78 83 83 81 83 82 70 55 45 38 29 21 14 9 7 7 7 6 4 2 0 0 0 0 0 0 0 0 0
0 0 0 0 0 0 0 0 0 1 5 8 10 13 15 16 20 29 45 65 77 82 83 84 87 89 83 74 66 59 48 35 24 16 12 12 11 7 4 1 0 0 0 0 0 0 0 0 0
0 0 0 0 0 0 0 0 0 0 2 6 7 8 10 15 21 31 45 62 75 80 84 85 87 90 89 84 77 69 54 36 23 15 12 12 11 6 2 0 0 0 0 0 0 0 0 0 0
0 0 0 0 0 0 0 0 0 0 1 4 6 7 10 18 27 35 47 63 75 82 86 88 90 92 91 87 78 64 45 26 15 10 7 7 6 4 1 0 0 0 0 0 0 0 0 0 0
0 0 0 0 0 0 0 0 0 0 0 2 4 9 16 26 35 43 54 70 81 86 90 91 93 94 90 82 69 50 29 14 8 5 2 2 1 1 0 0 0 0 0 0 0 0 0 0 0
0 0 0 0 0 0 0 0 0 0 0 1 4 12 24 36 45 55 67 79 86 89 90 91 91 90 83 70 54 34 16 7 4 2 0 0 0 0 0 0 0 0 0 0 0 0 0 0 0
0 0 0 0 0 0 0 0 0 0 0 1 3 12 26 42 57 70 79 86 89 89 87 87 85 78 67 55 39 23 10 4 2 1 0 0 0 0 0 0 0 0 0 0 0 0 0 0 0
0 0 0 0 0 0 0 0 0 0 0 0 3 10 25 48 68 81 86 89 89 87 83 77 69 57 46 35 23 11 4 2 1 0 0 0 0 0 0 0 0 0 0 0 0 0 0 0 0
0 0 0 0 0 0 0 0 0 0 0 2 6 15 31 54 76 88 90 89 88 84 73 59 45 33 24 16 9 4 1 0 0 0 0 0 0 0 0 0 0 0 0 0 0 0 0 0 0
0 0 0 0 0 0 0 0 0 1 3 7 15 29 46 65 81 89 89 86 80 70 54 36 23 15 11 7 4 2 1 0 0 0 0 0 0 0 0 0 0 0 0 0 0 0 0 0 0
0 0 0 0 0 0 0 0 0 3 9 17 30 46 61 72 80 81 77 69 57 42 27 15 8 6 5 4 3 1 0 0 0 0 0 0 0 0 0 0 0 0 0 0 0 0 0 0 0
0 0 0 0 0 0 0 0 1 6 15 28 42 54 61 65 65 60 51 39 26 16 8 3 2 3 2 1 1 0 0 0 0 0 0 0 0 0 0 0 0 0 0 0 0 0 0 0 0
0 0 0 0 0 0 0 0 0 5 16 29 40 46 46 43 38 31 22 14 7 3 1 1 1 2 1 0 0 0 0 0 0 0 0 0 0 0 0 0 0 0 0 0 0 0 0 0 0
0 0 0 0 0 0 0 0 1 4 13 21 26 28 25 19 15 10 6 3 1 0 0 0 1 1 0 0 0 0 0 0 0 0 0 0 0 0 0 0 0 0 0 0 0 0 0 0 0
0 0 0 0 0 0 0 1 3 5 11 16 17 14 10 6 4 2 1 0 0 0 0 0 0 0 0 0 0 0 0 0 0 0 0 0 0 0 0 0 0 0 0 0 0 0 0 0 0

GEFSSGP_con_probscp_048.txt.gz
Probability
0 0 0 0 0 0 0 0 0 0 0 0 0 0 0 0 0 0 0 0 0 0 1 2 5 6 5 3 2 2 3 5 6 9 12 15 19 21 18 13 10 8 4 1 0 0 0 0 0
0 0 0 0 0 0 0 0 0 0 0 0 0 0 0 0 0 0 0 0 0 0 0 2 4 6 5 3 1 1 1 2 3 4 5 7 9 11 10 8 6 5 2 0 0 0 0 0 0
0 0 0 0 0 0 0 0 0 0 0 0 0 0 0 0 0 0 0 0 1 1 0 1 4 5 4 3 1 0 0 0 0 0 0 1 1 2 2 2 2 1 0 0 0 0 0 0 0
0 0 0 0 0 0 0 0 0 0 0 0 0 0 0 0 0 0 0 2 4 3 1 3 5 5 4 3 2 0 0 0 0 0 0 0 0 0 0 0 0 0 0 0 0 0 0 0 0
0 0 0 0 0 0 0 0 0 0 0 0 0 0 0 0 0 0 0 3 6 6 3 4 7 6 4 4 4 2 1 1 0 0 0 0 0 0 0 0 0 0 0 0 0 0 0 0 0
0 0 0 0 0 0 0 0 0 0 0 0 0 0 0 0 0 0 0 1 4 6 4 4 6 7 5 5 4 3 1 0 0 0 0 0 0 0 0 0 0 0 0 0 0 0 0 0 0
0 0 0 0 0 0 0 0 0 0 0 0 0 0 0 0 0 0 0 0 2 4 3 2 4 5 4 4 4 3 1 0 0 0 0 0 0 0 0 0 0 0 0 0 0 0 0 0 0
0 0 0 0 0 0 0 0 0 0 0 0 0 0 0 0 0 0 0 0 1 2 1 1 2 2 2 2 3 2 0 0 0 0 0 0 0 0 0 0 0 0 0 0 0 0 0 0 0
0 0 0 0 0 0 0 0 0 0 0 0 0 0 0 0 0 0 0 1 2 2 1 0 1 1 1 3 3 1 0 0 0 0 0 0 0 0 0 0 0 0 0 0 0 0 0 0 0
0 0 0 0 0 0 0 0 0 0 0 0 0 1 1 1 1 0 0 1 2 3 2 1 1 2 3 5 5 2 1 0 0 0 0 0 0 0 0 0 0 0 0 0 0 0 0 0 0
0 0 0 0 0 0 0 0 0 0 0 0 2 7 10 9 6 3 1 0 1 2 2 1 2 4 6 6 6 5 3 2 1 0 0 0 0 0 0 0 0 0 0 0 0 0 0 0 0
0 0 0 0 0 0 0 0 0 0 0 0 6 19 28 24 16 8 3 1 0 1 1 0 2 5 7 8 8 6 5 4 3 1 0 0 0 0 0 0 0 0 0 0 0 0 0 0 0
0 0 0 0 0 0 0 0 0 0 0 2 12 32 46 41 27 16 9 6 4 2 1 1 3 7 10 11 11 9 7 6 5 2 0 0 0 0 0 0 0 0 0 0 0 0 0 0 0
0 0 0 0 0 0 0 0 0 0 1 4 15 36 53 52 39 29 23 20 15 9 5 5 7 12 15 14 14 13 9 6 5 2 0 0 0 0 0 0 0 0 0 0 0 0 0 0 0
0 0 0 0 0 0 0 0 0 0 1 4 13 30 47 54 49 42 35 32 28 21 14 12 14 17 18 16 15 14 10 6 3 1 0 0 0 0 0 0 0 0 0 0 0 0 0 0 0
0 0 0 0 0 0 0 0 0 0 1 4 11 23 37 45 46 41 36 35 38 38 33 28 26 27 26 21 17 15 10 6 4 2 1 1 0 0 0 0 0 0 0 0 0 0 0 0 0
0 0 0 0 0 0 0 0 0 0 1 4 10 20 30 34 33 30 31 36 47 58 58 53 48 48 45 35 24 16 11 9 7 5 2 1 1 1 1 0 0 0 0 0 0 0 0 0 0
0 0 0 0 0 0 0 0 0 0 0 2 7 15 23 26 23 21 24 34 53 70 76 75 75 73 68 55 38 24 16 13 11 8 5 3 3 2 1 0 0 0 0 0 0 0 0 0 0
0 0 0 0 0 0 0 0 0 0 0 1 3 7 13 15 12 10 13 24 46 69 81 86 89 88 83 71 51 31 20 15 13 9 6 4 3 2 1 0 0 0 0 0 0 0 0 0 0
0 0 0 0 0 0 0 0 0 0 0 0 0 2 4 4 3 3 6 14 32 57 74 83 88 88 82 68 47 26 15 11 8 6 4 2 1 0 0 0 0 0 0 0 0 0 0 0 0
0 0 0 0 0 0 0 0 0 0 0 0 0 1 1 1 2 4 8 11 21 40 60 73 78 75 64 49 31 15 7 4 3 2 1 0 0 0 0 0 0 0 0 0 0 0 0 0 0
0 0 0 0 0 0 0 0 0 0 1 2 2 2 4 4 5 8 12 15 20 32 49 61 62 54 42 30 20 11 5 2 0 0 0 0 0 0 0 0 0 0 0 0 0 0 0 0 0
0 0 0 0 0 0 0 0 0 2 4 3 3 3 6 8 10 13 17 22 28 34 43 48 45 35 26 19 14 9 4 1 0 0 0 0 0 0 0 0 0 0 0 0 0 0 0 0 0
0 0 0 0 0 0 0 0 1 4 6 5 5 8 12 17 23 26 27 31 35 36 36 34 29 21 14 10 8 5 2 0 0 0 0 0 0 0 0 0 0 0 0 0 0 0 0 0 0
0 0 0 0 0 0 0 0 2 6 9 9 11 14 19 26 34 36 35 34 31 26 22 19 15 10 5 3 2 1 0 0 0 0 0 0 0 0 0 0 0 0 0 0 0 0 0 0 0
0 0 0 0 0 0 0 0 3 9 14 16 15 16 21 27 31 32 30 25 19 13 9 7 5 3 1 0 0 0 0 0 0 0 0 0 0 0 0 0 0 0 0 0 0 0 0 0 0
0 0 0 0 0 0 0 0 3 10 16 19 18 16 17 19 19 18 16 12 8 4 2 1 1 0 0 0 0 0 0 0 0 0 0 0 0 0 0 0 0 0 0 0 0 0 0 0 0
0 0 0 0 0 0 0 0 1 6 14 20 20 18 14 11 8 7 5 4 2 1 1 0 0 0 0 0 0 0 0 0 0 0 0 0 0 0 0 0 0 0 0 0 0 0 0 0 0
0 0 0 0 0 0 0 0 0 3 9 17 19 16 11 6 3 2 1 1 0 0 0 0 0 0 0 0 0 0 0 0 0 0 0 0 0 0 0 0 0 0 0 0 0 0 0 0 0
0 0 0 0 0 0 0 1 1 3 8 13 14 12 7 4 1 0 0 0 0 0 0 0 0 0 0 0 0 0 0 0 0 0 0 0 0 0 0 0 0 0 0 0 0 0 0 0 0

GEFSSGP_con_probscp_054.txt.gz
Probability
0 0 0 0 0 0 0 0 0 0 0 0 0 0 0 0 0 0 0 0 0 0 0 0 0 0 0 1 2 4 6 8 10 10 9 8 8 7 5 3 1 0 0 0 0 0 0 0 0
0 0 0 0 0 0 0 0 0 0 0 0 0 0 0 0 0 0 0 0 0 0 0 0 0 0 0 0 1 2 3 4 6 7 7 6 7 7 4 2 1 0 0 0 0 0 0 0 0
0 0 0 0 0 0 0 0 0 0 0 0 0 0 0 0 0 0 0 0 1 0 0 0 0 0 0 0 0 0 0 1 3 4 4 4 5 4 3 1 0 0 0 0 0 0 0 0 0
0 0 0 0 0 0 0 0 0 0 0 0 0 0 0 0 0 0 0 0 0 0 0 0 0 0 0 0 0 0 0 0 2 2 2 3 3 3 1 0 0 0 0 0 0 0 0 0 0
0 0 0 0 0 0 0 0 0 0 0 0 0 0 0 0 0 0 0 0 0 0 0 0 0 0 0 0 0 0 0 0 1 2 2 2 2 2 1 0 0 0 0 0 0 0 0 0 0
0 0 0 0 0 0 0 0 0 0 0 0 0 0 0 0 0 0 0 0 0 0 0 0 1 1 1 0 0 0 0 0 1 1 1 1 1 1 0 0 0 0 0 0 0 0 0 0 0
0 0 0 0 0 0 0 0 0 0 0 0 0 0 1 2 1 0 0 0 0 0 0 1 1 0 0 0 0 0 0 0 0 0 0 0 0 0 0 0 0 0 0 0 0 0 0 0 0
0 0 0 0 0 0 0 0 0 0 0 0 0 0 3 7 6 3 1 0 0 0 1 1 1 0 0 0 0 0 0 0 0 0 0 0 0 0 0 0 0 0 0 0 0 0 0 0 0
0 0 0 0 0 0 0 0 0 0 0 0 0 0 5 12 12 6 3 1 0 0 1 1 1 0 0 0 0 0 0 0 0 0 0 0 0 0 0 0 1 0 0 0 0 1 1 0 0
0 0 0 0 0 0 0 0 0 0 0 0 0 0 5 11 12 9 6 3 1 0 0 0 0 0 0 0 0 0 0 0 0 0 0 0 0 0 0 0 1 0 0 0 1 2 1 0 0
0 0 0 0 0 0 0 0 0 0 0 0 0 1 4 8 10 10 9 5 2 1 0 0 0 0 0 0 0 0 0 0 0 0 0 0 0 0 0 1 2 1 1 0 1 1 1 0 0
0 0 0 0 0 0 0 0 0 0 0 0 0 1 3 5 8 11 12 8 4 1 0 0 0 0 0 0 0 0 1 1 2 2 2 1 1 1 1 3 4 4 3 2 1 1 0 0 0
0 0 0 0 0 0 0 0 0 0 0 0 1 2 4 4 5 8 12 11 5 2 1 1 1 3 3 3 2 1 2 4 5 6 5 4 4 5 6 8 8 6 6 6 4 2 1 0 0
0 0 0 0 0 0 0 0 0 0 0 0 1 2 3 3 2 6 15 18 14 9 7 6 8 11 12 9 7 5 7 8 9 10 10 9 9 11 14 17 16 13 12 11 8 5 2 1 0
0 0 0 0 0 0 0 0 0 0 0 0 0 1 2 2 1 6 20 30 29 24 20 18 18 21 22 20 17 15 15 15 14 14 15 15 16 20 25 28 28 25 22 19 13 7 4 2 1
0 0 0 0 0 0 0 0 0 0 0 0 0 1 1 1 0 6 21 38 45 44 42 37 33 35 36 36 33 29 27 27 25 23 24 25 25 30 37 41 42 39 33 27 20 11 7 5 4
0 0 0 0 0 0 0 0 0 0 0 0 0 0 0 0 1 5 18 40 57 64 64 59 56 57 58 57 53 48 45 45 42 39 37 36 34 37 44 48 48 44 37 29 20 13 9 7 5
0 0 0 0 0 0 0 0 0 0 0 0 0 1 1 1 3 6 17 40 65 78 80 79 79 80 79 76 71 65 59 55 50 46 42 38 35 36 38 40 40 37 31 23 15 9 6 4 3
0 0 0 0 0 0 0 0 0 0 1 1 2 3 4 6 8 12 22 45 70 84 89 91 93 94 91 86 80 71 60 51 44 38 32 29 28 29 27 25 24 23 20 15 9 4 2 1 1
0 0 0 0 0 0 0 0 0 1 3 6 8 10 12 15 19 22 31 51 72 84 91 95 97 97 94 86 75 63 52 43 35 28 22 20 20 19 16 13 13 12 11 8 4 1 0 0 0
0 0 0 0 0 0 0 0 0 1 5 12 20 26 30 33 33 33 38 52 67 79 87 93 96 96 92 81 66 54 45 37 31 24 17 12 11 9 7 6 7 6 5 3 1 0 0 0 0
0 0 0 0 0 0 0 0 0 3 8 20 35 46 49 49 46 44 47 54 65 76 85 91 93 92 86 74 60 51 43 35 27 19 11 7 5 4 2 2 3 3 1 1 0 0 0 0 0
0 0 0 0 0 0 0 0 0 4 13 29 47 57 57 55 52 53 57 64 70 77 83 87 87 82 73 64 56 47 39 30 21 12 7 4 4 2 1 0 1 1 0 0 0 0 0 0 0
0 0 0 0 0 0 0 0 3 10 22 37 51 55 54 51 51 56 63 68 72 74 76 75 71 60 51 47 42 35 28 21 13 6 3 2 2 2 1 0 0 0 0 0 0 0 0 0 0
0 0 0 0 0 0 0 1 8 19 31 41 47 48 44 42 44 49 54 56 57 58 57 54 46 35 29 28 25 20 16 12 7 3 1 0 1 1 0 0 0 0 0 0 0 0 0 0 0
0 0 0 0 0 0 0 4 12 22 29 35 40 39 34 32 32 33 34 35 34 34 32 29 24 17 14 13 11 8 7 6 4 2 1 0 0 0 0 0 0 0 0 0 0 0 0 0 0
0 0 0 0 0 0 1 5 10 15 22 30 33 29 25 21 18 15 16 16 15 14 13 11 9 7 5 4 3 2 2 1 1 1 1 0 0 0 0 0 0 0 0 0 0 0 0 0 0
0 0 0 0 0 0 0 3 6 13 22 28 26 19 14 11 7 4 4 4 4 4 4 3 3 2 1 0 0 0 0 0 0 0 0 0 0 0 0 0 0 0 0 0 0 0 0 0 0
0 0 0 0 0 0 0 1 7 17 26 26 19 11 6 3 1 0 0 0 0 0 1 1 1 0 0 0 0 0 0 0 0 0 0 0 0 0 0 0 0 0 0 0 0 0 0 0 0
0 0 0 0 0 0 1 2 10 22 28 24 15 7 2 0 0 0 0 0 0 0 0 0 0 0 0 0 0 0 0 0 0 0 0 0 0 0 0 0 0 0 0 0 0 0 0 0 0

GEFSSGP_con_probscp_060.txt.gz
Probability
0 0 0 0 0 0 0 0 0 0 0 0 0 0 0 0 0 0 1 13 30 26 10 3 3 1 0 0 0 0 0 0 0 0 0 0 0 0 0 0 0 0 0 0 0 0 0 0 0
0 0 0 0 0 0 0 0 0 0 0 0 0 0 0 0 0 0 2 15 26 20 6 2 2 1 0 0 0 0 0 0 0 0 0 0 0 0 0 0 0 0 0 0 0 0 0 0 0
0 0 0 0 0 0 0 0 0 0 0 0 0 0 0 0 0 0 5 17 22 13 3 1 2 1 0 0 0 0 1 0 0 0 0 0 0 0 0 0 0 0 0 0 0 0 0 0 0
0 0 0 0 0 0 0 0 0 0 0 0 0 0 1 1 1 1 7 17 19 8 1 1 1 0 0 0 0 0 0 0 0 0 0 0 0 0 0 0 0 0 0 0 0 0 0 0 0
0 0 0 0 0 0 0 0 0 0 0 0 0 1 2 4 4 3 5 12 12 6 2 0 0 0 0 0 0 0 0 0 0 0 0 0 0 0 0 0 0 0 0 0 0 0 0 0 0
0 0 0 0 0 0 0 0 0 0 0 0 0 1 4 5 5 3 3 5 7 9 6 2 0 0 0 0 0 0 0 0 0 0 0 0 0 0 0 0 0 0 0 0 0 0 0 0 0
0 0 0 0 0 0 0 0 0 0 0 0 0 2 6 8 6 3 1 2 6 12 11 3 0 0 0 0 0 0 0 0 0 0 0 0 0 0 0 0 0 0 0 0 0 0 0 0 0
0 0 0 0 0 0 0 0 0 0 0 0 0 3 10 11 6 2 1 1 5 11 11 4 0 0 0 0 0 0 0 0 0 0 0 0 0 0 0 0 0 0 0 0 0 0 0 0 0
0 0 0 0 0 0 0 0 0 0 0 0 0 5 12 11 4 1 0 1 5 10 9 3 0 0 0 0 0 0 0 0 0 0 0 0 0 0 1 2 4 2 0 0 0 0 0 0 0
0 0 0 0 0 0 0 0 0 0 0 0 2 8 13 9 2 0 1 3 6 10 9 4 1 0 0 0 0 0 0 0 0 0 0 0 0 2 4 7 10 7 2 0 0 0 0 0 0
0 0 0 0 0 0 0 0 0 0 0 0 4 12 17 10 3 1 2 3 6 10 9 8 6 3 2 3 2 1 1 1 1 1 1 1 3 7 11 12 14 11 4 1 0 1 1 1 1
0 0 0 0 0 0 0 0 0 0 0 0 4 15 19 11 3 2 2 5 8 9 9 14 20 17 14 16 11 5 5 6 7 8 8 8 10 14 18 21 21 18 10 4 3 3 4 4 4
0 0 0 0 0 0 0 0 0 0 0 0 5 14 16 9 4 3 4 9 16 16 14 25 41 44 42 41 30 19 18 21 23 25 23 23 25 28 34 40 42 33 23 17 14 12 10 9 8
0 0 0 0 0 0 0 0 0 0 0 0 3 8 9 6 4 5 10 22 33 36 35 44 63 71 70 64 52 39 35 36 41 46 45 42 45 52 60 66 65 55 44 37 31 23 18 14 13
0 0 0 0 0 0 0 0 0 0 0 0 1 3 4 4 5 11 24 42 58 65 66 68 76 84 86 81 70 57 50 51 58 65 66 63 65 74 80 81 78 70 62 54 43 33 25 20 17
0 0 0 0 0 0 0 0 0 0 0 0 1 3 5 6 10 18 37 64 81 87 88 86 85 90 94 91 83 74 69 71 75 77 79 78 78 83 86 85 81 75 67 57 45 35 28 22 20
0 0 0 0 0 0 0 0 0 0 0 0 2 6 10 11 14 23 45 74 92 97 97 95 94 96 98 96 92 87 87 87 85 84 84 83 81 82 83 82 79 72 62 50 39 31 26 21 18
0 0 0 0 0 0 0 0 0 0 0 1 4 9 13 16 19 31 55 81 96 100 100 99 99 99 98 97 95 93 92 91 88 86 85 82 78 76 75 73 70 63 51 40 31 25 19 15 12
0 0 0 0 0 0 0 0 0 0 1 4 8 12 16 21 30 47 72 89 96 99 100 100 100 99 98 97 97 95 91 88 85 81 77 73 68 64 60 57 53 44 35 28 21 15 11 8 6
0 0 0 0 0 0 0 0 0 1 4 9 14 18 22 30 44 62 79 90 94 96 99 100 100 99 97 96 95 92 87 82 75 67 60 53 48 44 40 38 32 24 19 14 10 7 6 4 4
0 0 0 0 0 0 0 0 1 3 9 15 22 27 33 41 54 67 77 85 90 93 96 98 99 98 95 92 88 85 82 75 63 51 40 32 28 25 22 18 15 11 9 6 4 4 4 3 3
0 0 0 0 0 0 0 0 1 5 13 22 32 41 48 55 61 67 75 81 86 88 91 93 95 93 90 85 82 80 76 69 54 37 25 18 14 12 10 7 5 5 4 3 3 2 2 2 2
0 0 0 0 0 0 0 0 1 7 18 33 48 57 59 61 63 66 70 76 79 81 83 84 84 81 78 76 75 73 66 55 39 24 15 10 7 5 5 4 2 2 1 1 1 1 1 1 1
0 0 0 0 0 0 0 0 6 19 36 53 64 66 61 57 57 59 62 64 67 68 69 68 66 62 59 58 57 54 46 34 22 14 10 7 5 3 2 2 1 1 0 0 0 0 0 0 0
0 0 0 0 0 0 0 4 21 46 63 71 71 66 58 52 48 46 47 48 49 50 50 47 44 39 35 33 32 29 24 17 11 8 6 5 3 1 1 1 0 0 0 0 0 0 0 0 0
0 0 0 0 0 0 2 15 44 70 79 75 68 59 50 41 34 29 29 29 30 31 31 28 24 20 17 15 13 12 11 9 5 3 3 2 1 0 0 0 0 0 0 0 0 0 0 0 0
0 0 0 0 0 0 4 25 58 79 80 71 59 46 35 26 19 16 15 15 16 17 17 14 11 9 7 5 4 5 5 4 2 1 1 1 0 0 0 0 0 0 0 0 0 0 0 0 0
0 0 0 0 0 0 4 22 53 74 75 62 45 30 19 12 8 7 7 7 8 8 8 6 5 4 3 1 1 1 1 1 0 0 0 0 0 0 0 0 0 0 0 0 0 0 0 0 0
0 0 0 0 0 0 2 17 44 68 66 48 28 15 7 4 3 2 2 3 3 3 3 2 1 1 1 0 0 0 0 0 0 0 0 0 0 0 0 0 0 0 0 0 0 0 0 0 0
0 0 0 0 0 0 2 18 48 68 60 37 18 6 2 0 0 0 0 1 1 1 1 0 0 0 0 0 0 0 0 0 0 0 0 0 0 0 0 0 0 0 0 0 0 0 0 0 0

GEFSSGP_con_probscp_066.txt.gz
Probability
0 0 0 0 0 0 0 0 0 0 0 0 0 1 1 1 0 1 1 2 3 4 4 6 10 13 11 6 2 1 0 0 0 1 1 1 0 0 0 0 0 0 0 0 0 0 0 0 0
0 0 0 0 0 0 0 0 0 0 0 0 0 0 0 0 1 2 2 4 6 6 4 5 8 9 7 3 1 0 0 0 0 0 0 0 0 0 0 0 0 0 0 0 0 0 0 0 0
0 0 0 0 0 0 0 0 0 0 0 0 0 0 0 1 2 3 3 6 9 7 4 4 5 5 2 1 0 0 0 0 0 0 0 0 0 0 0 0 0 0 0 0 0 0 0 0 0
0 0 0 0 0 0 0 0 0 0 0 0 1 0 0 3 8 9 6 6 7 5 2 2 3 2 0 1 1 0 0 0 0 0 0 0 0 0 0 0 0 0 0 0 0 0 0 0 0
0 0 0 0 0 0 0 0 0 0 0 2 3 2 2 9 19 17 8 4 4 3 2 1 2 1 1 2 2 1 0 0 0 0 0 0 0 0 0 0 0 0 0 0 0 0 0 0 0
0 0 0 0 0 0 0 0 0 0 0 3 6 5 5 16 26 20 7 1 1 3 3 2 1 1 1 2 2 1 0 0 0 0 0 0 0 0 0 0 0 0 0 0 0 0 0 0 0
0 0 0 0 0 0 0 0 0 0 0 4 8 8 8 17 24 17 6 1 1 2 4 3 1 1 1 1 1 0 0 0 0 0 0 0 0 0 0 0 0 0 0 0 0 0 0 0 0
0 0 0 0 0 0 0 0 0 0 1 5 9 8 9 16 21 18 10 4 1 1 3 3 3 2 1 0 0 0 0 0 0 0 0 0 0 0 0 0 0 0 0 0 0 0 0 1 1
0 0 0 0 0 0 0 0 0 0 1 6 11 12 14 20 25 24 19 10 3 1 2 3 3 3 2 1 0 0 0 0 0 0 0 0 0 0 0 0 0 0 0 0 0 0 1 2 2
0 0 0 0 0 0 0 0 0 0 3 10 17 20 23 26 28 31 28 18 9 3 1 1 2 2 2 1 0 0 0 0 0 0 0 0 0 0 0 0 0 0 0 0 0 0 2 2 2
0 0 0 0 0 0 0 0 0 1 3 11 22 28 29 27 26 31 31 24 13 6 2 1 1 1 1 0 0 0 0 0 0 0 0 0 0 0 0 0 0 0 0 0 0 0 1 2 3
0 0 0 0 0 0 0 0 0 0 2 10 23 31 29 23 20 25 30 27 16 7 3 2 1 0 0 0 0 0 0 0 0 0 0 0 0 0 0 0 0 0 0 0 0 0 1 2 3
0 0 0 0 0 0 0 0 0 0 2 10 22 27 24 18 14 19 27 29 21 11 5 4 2 0 0 0 0 0 0 0 0 0 0 0 0 0 0 0 0 0 0 0 0 1 1 2 3
0 0 0 0 0 0 0 0 0 1 3 11 20 22 18 14 12 18 29 32 27 18 12 9 6 3 2 1 0 0 0 0 0 0 0 0 0 0 0 0 0 0 0 0 1 2 2 2 1
0 0 0 0 0 0 0 0 0 1 4 9 18 21 19 15 15 23 33 36 32 26 23 20 14 10 7 5 3 1 1 1 1 1 1 1 2 1 1 1 0 0 1 1 1 3 3 1 0
0 0 0 0 0 0 0 0 0 1 3 7 15 22 22 20 22 28 35 38 38 37 38 35 29 24 21 15 9 6 5 5 4 3 3 3 4 3 3 3 2 2 3 3 2 2 2 1 0
0 0 0 0 0 0 0 0 0 1 4 8 14 23 27 27 29 33 38 43 48 51 53 53 47 44 43 37 27 19 14 11 9 8 7 7 6 6 6 6 6 6 5 4 2 1 1 0 0
0 0 0 0 0 0 0 0 0 2 7 11 18 26 32 34 35 39 43 50 57 61 64 67 65 64 66 62 52 40 30 22 16 13 12 11 11 11 11 10 10 8 6 3 1 0 0 0 0
0 0 0 0 0 0 0 1 3 7 12 16 22 28 32 34 37 41 47 56 63 64 68 74 76 77 78 76 70 58 46 34 24 18 15 14 13 14 16 14 11 8 5 3 1 0 0 0 0
0 0 0 0 0 0 1 3 7 12 18 24 29 31 31 33 37 43 49 59 64 65 69 75 78 79 79 77 72 62 48 35 26 20 16 13 13 14 15 13 8 5 3 1 0 0 0 0 0
0 0 0 0 0 0 1 4 9 15 23 32 37 37 36 37 40 45 51 58 64 66 69 71 73 75 76 74 68 58 45 32 24 18 12 9 9 9 9 8 4 2 1 0 0 0 0 0 0
0 0 0 0 0 0 1 2 7 15 25 35 42 44 44 44 46 49 53 57 60 62 62 62 63 65 67 66 60 52 41 29 20 13 7 5 4 4 4 3 2 1 0 0 0 0 0 0 0
0 0 0 0 0 0 0 1 5 13 23 32 41 46 47 46 47 50 51 52 51 49 48 49 51 53 53 51 45 39 31 22 14 7 3 1 1 1 1 1 0 0 0 0 0 0 0 0 0
0 0 0 0 0 0 0 0 4 11 21 29 37 41 42 42 43 43 42 41 40 38 37 38 41 41 38 32 27 23 18 12 6 2 0 0 0 0 0 0 0 0 0 0 0 0 0 0 0
0 0 0 0 0 0 0 1 4 11 19 27 30 32 31 31 32 32 31 30 29 28 27 28 29 27 23 18 14 11 8 5 2 0 0 0 0 0 0 0 0 0 0 0 0 0 0 0 0
0 0 0 0 0 0 0 3 8 12 17 21 21 20 20 20 20 21 20 20 19 17 15 14 15 13 10 8 6 4 2 1 0 0 0 0 0 0 0 0 0 0 0 0 0 0 0 0 0
0 0 0 0 0 0 1 5 11 15 15 14 13 12 12 11 11 11 11 11 10 8 6 6 5 4 3 3 2 1 0 0 0 0 0 0 0 0 0 0 0 0 0 0 0 0 0 0 0
0 0 0 0 0 0 1 4 11 15 13 10 9 8 7 6 6 5 4 4 4 3 2 2 2 1 1 1 1 0 0 0 0 0 0 0 0 0 0 0 0 0 0 0 0 0 0 0 0
0 0 0 0 0 0 1 3 8 13 11 5 4 4 3 3 2 1 1 1 1 1 1 1 1 1 0 0 0 0 0 0 0 0 0 0 0 0 0 0 0 0 0 0 0 0 0 0 0
0 0 0 0 0 0 0 1 6 11 8 3 1 1 1 1 0 0 0 0 0 0 0 0 0 0 0 0 0 0 0 0 0 0 0 0 0 0 0 0 0 0 0 0 0 0 0 0 0

GEFSSGP_con_probscp_072.txt.gz
Probability
0 0 0 0 0 0 0 0 0 0 0 0 0 0 0 0 0 0 0 0 2 4 5 3 3 3 3 2 2 1 0 0 0 0 1 1 1 2 2 2 3 3 3 2 1 0 0 0 0
0 0 0 0 0 0 0 0 0 0 0 0 0 0 0 0 0 0 0 1 3 5 5 3 2 3 2 1 1 0 0 0 0 0 0 0 0 1 1 1 2 3 3 2 1 0 0 0 0
0 0 0 0 0 0 0 0 0 0 0 0 0 0 0 0 0 0 1 4 7 8 6 4 3 2 1 0 0 0 0 0 0 0 0 0 0 0 0 0 1 2 2 1 0 0 0 0 0
0 0 0 0 0 0 0 0 0 0 0 0 0 0 0 0 0 0 3 7 10 9 7 4 3 1 0 0 0 0 0 0 0 0 0 0 0 0 0 0 0 1 1 0 0 0 0 0 0
0 0 0 0 0 0 0 0 0 0 0 0 0 0 0 0 1 1 3 6 9 10 7 4 2 1 0 1 1 1 0 0 0 0 0 0 0 0 0 0 0 0 0 0 0 0 0 0 0
0 0 0 0 0 0 0 0 0 0 0 0 0 0 0 1 2 2 3 5 8 9 7 3 1 0 0 2 3 3 1 0 0 0 0 0 0 0 0 0 0 0 0 0 0 0 0 0 0
0 0 0 0 0 0 0 0 0 0 0 0 0 0 0 2 3 3 4 7 8 8 6 3 1 0 0 1 2 3 1 0 0 0 0 0 0 0 0 0 0 0 0 0 0 0 0 0 0
0 0 0 0 0 0 0 0 0 0 0 0 0 0 1 3 4 5 7 10 10 8 6 3 1 0 0 1 2 3 2 0 0 0 0 0 0 0 0 0 0 0 0 0 0 0 0 0 0
0 0 0 0 0 0 0 0 0 0 0 1 2 3 7 11 10 10 12 12 12 10 6 3 1 0 0 1 2 3 1 0 0 0 0 0 0 0 0 0 0 0 0 0 0 0 0 0 0
0 0 0 0 0 0 0 0 0 0 0 1 5 11 19 24 21 15 13 12 12 11 7 3 0 0 0 1 2 2 1 0 0 0 0 0 0 0 0 0 0 0 0 0 0 0 0 0 0
0 0 0 0 0 0 0 0 0 0 0 2 10 25 37 37 29 19 12 10 10 8 6 3 1 0 0 1 3 3 1 0 0 0 0 0 0 0 0 0 0 0 0 0 0 0 0 0 0
0 0 0 0 0 0 0 0 0 0 0 3 17 40 53 47 34 22 12 8 7 5 4 3 2 1 1 3 5 4 1 0 0 0 0 0 0 0 0 0 0 0 0 0 0 0 0 0 0
0 0 0 0 0 0 0 0 0 0 1 7 25 47 59 52 38 25 16 10 7 4 2 2 2 1 1 5 8 6 3 1 0 0 0 0 0 0 0 0 0 0 0 0 0 0 0 0 0
0 0 0 0 0 0 0 0 0 0 2 11 30 47 55 50 38 28 22 14 8 3 0 1 1 1 2 6 8 6 3 1 0 0 0 0 0 0 0 0 0 0 0 0 0 0 0 0 0
0 0 0 0 0 0 0 0 0 0 3 12 26 40 46 42 34 29 26 20 12 4 0 0 0 1 3 5 6 5 2 1 0 0 0 0 0 0 0 0 0 0 0 0 0 0 0 0 0
0 0 0 0 0 0 0 0 0 1 4 10 18 28 35 31 26 25 27 26 19 10 3 2 2 2 3 5 5 5 2 0 0 0 0 0 0 0 0 0 0 0 0 0 1 1 1 1 0
0 0 0 0 0 0 0 0 2 4 6 9 13 18 22 20 19 23 28 30 27 19 11 7 6 6 5 6 8 7 5 3 1 0 0 0 0 0 0 1 1 1 1 1 2 2 2 1 0
0 0 0 0 0 0 0 1 5 8 9 10 14 16 16 14 15 21 29 33 33 30 24 18 15 15 14 14 14 12 10 7 3 1 0 0 0 0 1 2 3 3 3 3 2 2 1 0 0
0 0 0 0 0 0 0 3 8 13 14 16 20 22 20 17 15 18 25 33 38 39 39 34 30 30 32 31 27 22 16 10 5 2 0 0 0 1 2 4 4 4 4 3 1 1 0 0 0
0 0 0 0 0 0 0 4 11 18 20 23 25 27 28 25 19 17 22 33 41 45 48 48 47 49 51 47 38 29 20 12 7 4 2 1 2 3 4 5 4 4 4 2 0 0 0 0 0
0 0 0 0 0 0 0 4 12 19 22 24 25 26 27 26 22 22 28 36 43 46 49 53 54 58 58 51 41 33 25 16 10 7 5 4 4 5 5 5 4 3 3 2 0 0 0 0 0
0 0 0 0 0 0 0 3 9 14 18 20 22 21 19 18 20 26 33 39 43 46 46 47 49 50 50 46 39 34 27 19 12 8 6 5 5 4 3 3 2 1 1 1 0 0 0 0 0
0 0 0 0 0 0 0 2 5 9 12 16 18 15 11 10 13 21 29 35 38 41 40 38 37 37 36 34 32 27 22 15 10 6 4 3 3 2 1 1 0 0 0 0 0 0 0 0 0
0 0 0 0 0 0 0 2 7 8 8 11 11 8 5 5 7 12 21 25 27 30 32 30 27 25 23 21 19 15 11 9 6 3 1 1 1 1 0 0 0 0 0 0 0 0 0 0 0
0 0 0 0 0 0 1 4 8 8 6 5 5 3 3 3 3 7 12 15 17 20 22 21 18 15 12 10 8 6 4 4 3 1 0 0 0 0 0 0 0 0 0 0 0 0 0 0 0
0 0 0 0 0 0 2 5 6 4 2 2 1 0 1 1 1 3 6 8 10 12 12 11 8 5 3 3 2 1 1 1 1 0 0 0 0 0 0 0 0 0 0 0 0 0 0 0 0
0 0 0 0 0 0 2 4 3 1 1 1 0 0 0 0 1 2 3 4 4 5 5 3 1 0 0 0 0 0 0 0 0 0 0 0 0 0 0 0 0 0 0 0 0 0 0 0 0
0 0 0 0 0 0 1 3 3 1 0 0 0 0 0 0 1 2 2 1 1 1 1 0 0 0 0 0 0 0 0 0 0 0 0 0 0 0 0 0 0 0 0 0 0 0 0 0 0
0 0 0 0 0 0 1 2 3 2 0 0 0 0 0 0 0 1 1 0 0 0 0 0 0 0 0 0 0 0 0 0 0 0 0 0 0 0 0 0 0 0 0 0 0 0 0 0 0
0 0 0 0 0 0 1 3 3 2 1 0 0 0 0 0 0 0 0 0 0 0 0 0 0 0 0 0 0 0 0 0 0 0 0 0 0 0 0 0 0 0 0 0 0 0 0 0 0

GEFSSGP_con_probscp_078.txt.gz
Probability
0 0 0 0 0 0 0 0 0 0 0 0 0 0 0 0 0 0 0 0 3 6 6 2 1 1 3 8 16 25 29 29 27 23 18 13 9 5 2 0 0 0 0 0 0 0 0 0 0
0 0 0 0 0 0 0 0 0 0 0 0 0 0 0 0 0 0 0 1 5 7 6 2 0 1 3 10 23 35 41 41 37 31 23 15 10 5 1 0 0 0 0 0 0 0 0 0 0
0 0 0 0 0 0 0 0 0 0 0 0 0 0 0 0 0 0 2 5 7 7 5 3 2 1 3 12 28 45 54 53 48 41 29 17 9 4 1 0 0 0 0 0 0 0 0 0 0
0 0 0 0 0 0 0 0 0 0 0 0 0 0 0 0 0 2 5 7 7 5 4 4 4 3 4 10 26 45 55 55 50 42 30 17 7 3 1 0 0 0 0 0 0 0 0 0 0
0 0 0 0 0 0 0 0 0 0 0 0 0 0 0 0 1 3 6 6 4 3 3 5 6 4 3 6 19 37 49 51 47 39 28 17 9 5 3 1 0 0 0 0 0 0 0 0 0
0 0 0 0 0 0 0 0 0 0 0 0 0 0 0 0 1 3 6 5 2 1 3 5 5 4 2 2 11 25 36 40 39 33 24 17 12 8 5 2 1 0 0 0 0 0 0 0 1
0 0 0 0 0 0 0 0 0 0 0 0 0 0 0 0 1 3 6 5 2 2 3 4 4 2 1 2 6 14 22 25 26 23 18 14 12 9 5 2 1 0 0 0 0 0 0 0 1
0 0 0 0 0 0 0 0 0 0 0 0 0 0 1 3 4 8 10 8 6 5 4 4 3 2 1 1 3 7 11 14 14 13 11 10 7 5 3 2 1 1 0 0 0 0 0 0 1
0 0 0 0 0 0 0 0 0 0 0 0 0 0 3 8 13 20 24 21 17 13 8 4 3 2 1 0 1 2 5 7 7 6 6 4 2 1 1 1 1 1 0 0 0 0 0 0 0
0 0 0 0 0 0 0 0 0 0 0 0 0 0 5 13 20 29 36 35 31 24 13 6 3 2 1 0 0 0 2 3 2 2 2 1 0 0 0 0 1 0 0 0 0 0 0 0 0
0 0 0 0 0 0 0 0 0 0 0 0 0 0 4 10 17 27 36 38 37 29 17 8 4 3 1 0 1 1 2 2 2 2 2 1 1 0 0 0 1 0 0 0 0 0 0 0 0
0 0 0 0 0 0 0 0 0 0 1 1 0 0 3 7 11 19 28 34 36 31 20 10 6 5 3 3 4 5 5 4 4 5 5 4 3 1 0 1 1 0 0 0 0 0 0 0 0
0 0 0 0 0 0 0 0 0 1 2 2 2 2 4 6 9 15 24 32 36 33 24 15 11 10 11 12 12 11 9 7 7 9 7 6 4 3 3 4 4 2 0 0 0 0 1 1 0
0 0 0 0 0 0 0 0 1 2 3 4 5 6 8 8 9 16 26 34 37 34 28 22 18 18 23 25 22 18 14 11 11 10 9 7 7 7 7 8 8 5 2 1 1 2 3 4 3
0 0 0 0 0 0 0 0 1 3 4 6 8 10 13 16 17 22 31 34 34 34 32 29 24 24 29 31 29 24 17 13 13 12 10 8 10 13 13 11 10 10 9 8 9 10 12 12 11
0 0 0 0 0 0 0 1 3 4 6 9 11 14 19 27 30 31 33 32 31 34 38 35 29 28 31 33 33 30 25 19 16 15 14 12 13 18 20 18 18 21 22 21 21 23 24 22 21
0 0 0 0 0 0 1 4 7 9 9 13 18 23 28 36 42 41 36 32 33 39 43 42 37 35 37 39 41 41 38 31 27 26 26 24 22 25 28 29 31 35 38 37 36 37 37 32 30
0 0 0 0 0 1 2 6 12 15 15 20 28 34 38 43 47 48 43 37 39 45 49 49 49 50 51 54 56 56 51 46 44 43 41 39 37 37 39 41 44 48 52 48 44 43 41 35 32
0 0 0 0 0 2 4 8 14 19 22 29 37 41 45 48 50 51 49 46 45 48 53 56 60 65 67 69 71 69 63 59 56 51 48 47 46 46 48 48 51 54 54 48 42 39 34 28 25
0 0 0 0 0 1 3 7 12 19 26 35 43 45 48 51 51 52 55 56 53 53 57 61 67 74 77 78 78 76 70 62 54 47 42 41 42 43 44 44 44 44 43 38 35 32 26 20 15
0 0 0 0 0 0 1 4 8 16 26 37 44 45 47 50 51 52 56 59 58 57 60 64 71 77 81 83 81 77 70 59 46 36 30 27 28 30 29 27 27 26 26 24 24 22 20 15 11
0 0 0 0 0 0 0 1 4 11 20 30 37 37 37 40 43 46 49 51 52 55 60 66 72 76 78 79 77 72 62 50 38 26 18 15 15 16 15 12 12 12 11 11 10 10 10 9 7
0 0 0 0 0 0 0 1 3 7 13 21 26 26 26 27 30 34 37 37 39 45 52 60 66 67 66 66 64 57 45 36 27 17 11 8 7 7 6 4 3 3 3 3 3 3 3 2 2
0 0 0 0 0 0 0 2 5 7 10 14 17 17 16 16 18 22 24 24 26 30 36 44 49 49 49 48 46 39 30 22 16 9 5 3 2 2 1 1 0 0 0 0 1 1 0 0 0
0 0 0 0 0 0 0 3 8 9 8 8 9 10 9 8 10 13 15 16 17 19 20 24 28 30 31 30 28 24 19 13 8 4 2 0 0 0 0 0 0 0 0 0 0 0 0 0 0
0 0 0 0 0 0 1 6 9 7 4 3 4 5 5 4 5 7 10 12 13 13 12 12 14 16 17 16 13 10 8 6 3 1 0 0 0 0 0 0 0 0 0 0 0 0 0 0 0
0 0 0 0 0 0 2 5 6 4 2 1 2 4 4 2 2 4 6 8 8 8 8 8 8 8 7 6 4 2 2 1 0 0 0 0 0 0 0 0 0 0 0 0 0 0 0 0 0
0 0 0 0 0 0 1 2 3 3 2 1 1 2 2 1 0 1 2 3 3 4 5 4 3 2 2 1 1 0 0 0 0 0 0 0 0 0 0 0 0 0 0 0 0 0 0 0 0
0 0 0 0 0 0 1 2 3 4 3 1 1 1 1 0 0 0 0 0 1 1 1 1 0 0 0 0 0 0 0 0 0 0 0 0 0 0 0 0 0 0 0 0 0 0 0 0 0
0 0 0 0 0 0 1 3 6 6 4 1 0 1 0 0 0 0 0 0 0 0 0 0 0 0 0 0 0 0 0 0 0 0 0 0 0 0 0 0 0 0 0 0 0 0 0 0 0

GEFSSGP_con_probscp_084.txt.gz
Probability
0 0 0 0 0 0 0 0 0 0 0 0 0 0 0 1 1 1 6 31 68 82 75 70 64 41 14 2 0 1 0 0 0 0 0 0 0 0 0 0 0 0 0 0 0 0 0 0 0
0 0 0 0 0 0 0 0 0 0 0 0 0 0 0 0 0 2 15 45 72 75 66 68 66 46 20 6 3 2 1 1 0 0 0 0 0 0 0 0 0 0 0 0 0 0 0 0 0
0 0 0 0 0 0 0 0 0 0 0 0 0 0 1 0 2 9 31 60 72 65 59 64 66 53 30 14 8 6 4 2 1 1 1 1 0 0 0 0 0 0 0 0 0 0 0 0 0
0 0 0 0 0 0 0 0 0 0 0 0 0 2 4 2 6 21 44 64 65 54 50 56 62 56 39 23 14 9 6 5 4 4 3 2 1 0 0 0 0 0 0 0 0 0 0 0 0
0 0 0 0 0 0 0 0 0 0 0 0 2 8 9 7 12 26 41 54 51 43 41 46 55 54 43 30 21 15 11 8 8 8 7 5 2 0 0 0 0 0 0 0 0 0 0 0 0
0 0 0 0 0 0 0 0 0 0 0 0 4 12 15 13 15 19 26 30 34 37 35 34 40 43 38 30 22 18 15 12 13 12 10 7 3 1 0 0 0 0 0 0 0 0 0 0 0
0 0 0 0 0 0 0 0 0 0 0 0 4 14 22 22 17 11 10 14 24 34 29 21 21 24 24 22 18 15 15 16 15 14 10 7 4 1 0 0 0 0 0 0 0 0 0 0 0
0 0 0 0 0 0 0 0 0 0 0 0 4 15 27 26 16 10 8 12 24 32 25 12 9 11 11 12 12 13 14 15 14 10 7 5 3 1 0 0 0 0 0 0 0 0 0 0 0
0 0 0 0 0 0 0 0 0 0 0 1 5 16 25 21 13 11 13 19 29 35 26 11 6 6 6 7 10 11 10 9 7 5 3 3 1 0 0 1 2 1 0 0 0 0 0 0 0
0 0 0 0 0 0 0 0 0 0 0 2 7 16 20 16 11 13 19 29 38 40 28 14 9 7 5 5 8 7 4 2 1 1 1 1 1 1 1 4 6 4 1 0 0 0 0 0 0
0 0 0 0 0 0 0 0 0 0 0 2 7 14 17 15 12 15 24 36 46 42 28 18 14 11 8 7 7 4 3 2 2 1 1 1 2 2 2 5 7 5 2 1 1 1 0 0 0
0 0 0 0 0 0 0 0 0 1 1 3 7 13 17 16 13 16 26 40 49 44 31 26 27 24 22 19 11 6 6 6 6 7 6 4 2 2 4 7 8 5 4 4 4 2 1 1 1
0 0 0 0 0 0 0 0 1 2 2 4 8 13 15 15 14 20 33 46 54 51 43 44 48 47 49 44 27 17 17 16 16 17 14 8 5 5 8 13 15 12 11 12 11 8 8 8 6
0 0 0 0 0 0 0 1 2 3 3 4 8 13 15 14 15 25 40 55 62 60 58 63 69 71 74 66 48 33 31 28 28 30 25 16 15 17 20 24 25 23 21 23 24 23 21 18 15
0 0 0 0 0 0 1 2 4 4 4 6 9 13 17 17 19 31 50 66 74 73 72 76 79 83 85 77 61 46 41 40 44 46 40 31 32 37 39 38 37 34 33 36 38 37 34 28 25
0 0 0 0 0 0 1 3 5 5 7 10 13 16 18 22 28 43 63 78 84 85 85 83 83 87 89 83 69 55 50 54 62 64 59 51 51 55 56 53 49 47 48 49 47 44 42 39 36
0 0 0 0 0 0 2 6 7 9 11 14 15 17 22 30 44 59 73 83 88 91 91 86 85 89 90 85 74 64 63 69 75 76 71 66 64 66 65 63 61 61 63 61 53 49 50 48 46
0 0 0 0 0 2 6 11 14 15 18 21 22 25 34 46 58 67 73 79 87 92 92 88 87 89 87 82 77 75 76 78 78 76 72 67 65 67 67 64 64 66 69 67 60 55 52 47 44
0 0 0 0 2 6 11 17 20 24 29 35 39 45 53 61 65 67 68 73 82 88 89 86 85 86 84 80 80 84 82 78 74 69 63 59 57 59 60 59 61 63 65 64 59 54 46 38 34
0 0 0 1 3 7 13 18 24 32 42 51 57 62 65 66 65 64 65 69 76 81 80 78 77 80 81 80 83 87 82 73 65 58 49 43 42 43 45 47 50 53 53 51 47 41 34 27 23
0 0 0 1 2 4 8 13 22 34 46 56 62 63 62 61 59 57 58 62 65 67 68 67 69 73 75 77 82 83 77 66 55 44 33 26 25 25 26 29 32 34 35 33 30 25 21 16 12
0 0 1 1 1 1 2 6 18 32 42 49 54 53 49 45 43 42 44 46 47 49 52 56 61 64 65 68 72 72 66 55 43 30 20 15 13 13 14 15 17 17 17 17 15 13 10 7 4
0 0 1 0 0 0 0 4 16 29 36 37 38 36 31 28 27 27 28 28 29 32 37 42 47 51 52 54 57 56 50 41 29 18 12 8 7 6 7 7 7 7 6 6 5 4 3 1 1
0 0 0 0 0 0 0 7 21 32 32 27 24 20 17 16 16 17 18 18 18 21 24 28 32 35 36 38 40 39 33 26 18 11 6 3 2 2 2 2 2 1 1 1 0 0 0 0 0
0 0 0 0 0 0 3 17 37 43 33 22 16 13 11 10 10 11 12 12 13 14 15 17 19 21 22 22 25 24 19 14 11 7 3 0 0 0 0 0 0 0 0 0 0 0 0 0 0
0 0 0 0 0 1 9 30 52 50 32 19 13 10 9 9 8 9 9 10 10 11 12 12 12 13 14 14 14 13 9 7 5 2 1 0 0 0 0 0 0 0 0 0 0 0 0 0 0
0 0 0 0 0 1 10 30 44 40 27 16 12 10 8 7 6 6 6 6 7 8 9 9 9 9 8 8 7 5 3 2 1 0 0 0 0 0 0 0 0 0 0 0 0 0 0 0 0
0 0 0 0 0 0 5 13 21 23 19 13 10 8 5 3 2 2 2 2 3 4 5 5 5 4 3 3 2 1 0 0 0 0 0 0 0 0 0 0 0 0 0 0 0 0 0 0 0
0 0 0 0 0 0 0 2 7 11 11 8 6 4 2 0 0 0 0 0 0 1 1 2 1 1 0 0 0 0 0 0 0 0 0 0 0 0 0 0 0 0 0 0 0 0 0 0 0
0 0 0 0 0 0 0 1 4 8 7 4 2 1 0 0 0 0 0 0 0 0 0 1 0 0 0 0 0 0 0 0 0 0 0 0 0 0 0 0 0 0 0 0 0 0 0 0 0

GEFSSGP_con_probscp_090.txt.gz
Probability
0 0 0 0 0 0 0 0 0 0 0 0 0 0 0 0 0 0 1 7 16 18 13 14 17 16 12 8 4 2 0 0 0 0 0 0 0 0 0 0 0 0 0 0 0 0 0 0 0
0 0 0 0 0 0 0 0 0 0 0 0 0 0 0 0 0 1 5 15 24 23 17 16 21 23 18 11 7 3 1 0 0 0 0 0 0 0 0 0 0 0 0 0 0 0 0 0 0
0 0 0 0 0 0 0 0 0 0 0 0 0 0 0 0 0 4 15 29 36 31 23 23 29 32 26 18 11 5 1 0 0 0 0 0 0 0 0 0 0 0 0 0 0 0 0 0 0
0 0 0 0 0 0 0 0 0 0 0 0 0 1 1 1 4 12 25 39 45 39 31 33 38 37 31 23 14 6 2 0 0 0 0 0 0 0 0 0 0 0 0 0 0 0 0 0 0
0 0 0 0 0 0 0 0 0 0 0 0 1 3 4 5 11 23 33 39 44 42 38 39 42 39 32 25 16 8 3 0 0 0 0 0 0 0 0 0 0 0 0 0 0 0 0 0 0
0 0 0 0 0 0 0 0 0 0 0 1 4 7 8 10 20 31 36 35 37 40 40 39 39 36 30 25 18 10 4 0 0 0 0 0 0 0 0 0 0 0 0 0 0 0 0 0 0
0 0 0 0 0 0 0 0 0 0 0 2 8 14 16 18 24 32 35 33 33 38 40 35 30 26 24 21 17 12 5 1 0 0 0 0 0 0 0 0 0 0 0 0 0 0 0 0 0
0 0 0 0 0 0 0 0 0 0 1 3 10 18 23 26 31 35 37 36 34 36 37 33 25 21 19 16 14 11 6 1 1 0 0 0 0 0 0 0 0 0 0 0 0 0 0 0 0
0 0 0 0 0 0 0 0 0 0 1 5 12 21 29 36 43 47 46 43 37 33 33 32 27 22 18 15 14 11 5 1 2 1 0 0 0 0 0 0 0 0 0 0 0 0 0 0 0
0 0 0 0 0 0 0 1 2 1 2 7 17 28 36 42 50 54 52 44 38 33 31 30 27 22 19 20 18 12 6 2 1 1 0 0 0 0 0 0 0 0 0 0 0 0 0 0 0
0 0 0 0 0 0 0 2 4 3 3 9 21 33 39 42 48 54 52 43 36 34 33 30 26 22 21 24 22 15 9 4 1 1 0 0 0 0 0 0 0 0 0 0 0 0 0 0 0
0 0 0 0 0 0 1 3 5 5 5 10 22 32 36 37 43 50 51 43 35 31 32 32 28 23 22 22 19 14 10 5 1 0 0 0 0 0 0 0 0 0 0 0 0 0 0 0 0
0 0 0 0 0 0 1 3 5 5 7 13 22 29 32 35 41 49 51 46 37 31 31 31 30 25 21 18 14 11 8 4 1 0 0 0 0 0 0 0 0 0 0 0 0 0 0 0 0
0 0 0 0 0 0 1 2 4 6 10 16 21 27 33 38 43 50 53 49 43 37 32 30 27 24 21 16 12 9 6 3 0 0 0 0 0 0 0 0 0 0 0 0 0 0 0 0 0
0 0 0 0 0 1 2 3 4 7 13 17 20 26 35 40 41 46 52 51 45 38 34 30 26 24 22 16 11 9 6 3 1 0 0 0 0 0 0 0 0 0 0 0 0 0 0 0 0
0 0 0 0 0 1 3 5 6 9 15 20 22 27 34 38 38 40 46 47 41 35 33 33 31 28 24 19 15 12 9 7 5 4 3 2 1 0 0 0 0 0 0 0 0 0 0 0 0
0 0 0 0 0 2 6 9 12 17 22 26 28 33 38 40 39 38 40 42 39 35 35 37 38 35 31 28 26 22 16 12 9 8 7 5 3 2 1 0 0 1 1 0 0 0 0 0 0
0 0 0 0 1 5 10 16 23 30 35 36 39 42 45 44 41 39 39 40 39 37 36 37 39 40 42 43 41 36 26 16 10 8 6 5 4 3 2 1 2 3 3 2 1 1 1 0 0
0 0 0 1 4 10 17 26 35 42 46 45 45 47 47 44 40 38 38 38 38 37 35 34 35 40 46 50 48 42 32 20 11 6 4 4 4 5 4 4 5 5 5 4 3 2 2 1 0
0 0 0 3 8 15 24 33 39 42 43 43 42 41 40 37 34 32 30 30 31 31 30 30 33 37 41 43 43 38 32 23 13 7 4 4 5 5 5 5 5 5 4 4 3 3 3 2 1
0 0 1 4 8 13 19 26 29 29 29 30 30 29 28 27 24 21 19 19 21 23 25 27 29 31 33 33 32 31 27 20 11 6 4 3 4 4 4 4 4 4 3 3 3 3 2 2 1
0 0 2 3 5 6 8 11 15 16 19 21 20 17 16 16 14 11 10 11 12 15 20 22 22 23 25 25 23 22 20 13 7 5 4 3 3 3 3 3 3 3 3 2 2 1 1 1 0
0 0 1 1 1 1 1 2 6 10 14 16 15 11 10 10 9 7 7 7 8 11 16 18 16 16 17 18 16 14 12 8 5 6 5 4 3 3 3 3 2 2 1 1 1 0 0 0 0
0 0 0 0 0 0 0 0 2 6 10 11 12 11 9 9 8 7 6 6 7 10 13 13 12 10 11 11 10 9 6 5 5 6 5 3 2 2 2 1 1 1 0 0 0 0 0 0 0
0 0 0 0 0 0 0 0 1 3 7 8 9 9 10 9 8 7 6 6 7 8 8 8 7 6 6 6 6 5 4 4 5 5 3 1 1 0 0 0 0 0 0 0 0 0 0 0 0
0 0 0 0 0 0 0 0 0 2 5 6 6 7 7 7 6 6 6 6 5 4 4 4 4 4 4 4 4 3 3 3 3 2 1 0 0 0 0 0 0 0 0 0 0 0 0 0 0
0 0 0 0 0 0 0 0 0 1 3 4 3 3 3 3 3 3 3 3 4 3 3 3 4 4 3 3 3 2 2 2 1 0 0 0 0 0 0 0 0 0 0 0 0 0 0 0 0
0 0 0 0 0 0 0 0 0 1 2 2 1 1 0 1 1 1 1 1 2 2 2 3 3 3 2 2 1 1 1 1 0 0 0 0 0 0 0 0 0 0 0 0 0 0 0 0 0
0 0 0 0 0 0 0 0 0 0 1 1 0 0 0 0 0 0 0 0 1 1 1 1 1 1 1 1 0 0 0 0 0 0 0 0 0 0 0 0 0 0 0 0 0 0 0 0 0
0 0 0 0 0 0 0 0 0 0 0 0 0 0 0 0 0 0 0 0 0 0 0 0 0 0 0 0 0 0 0 0 0 0 0 0 0 0 0 0 0 0 0 0 0 0 0 0 0

GEFSSGP_con_probscp_096.txt.gz
Probability
0 0 0 0 0 0 0 0 0 0 0 0 0 0 0 0 0 1 0 2 7 14 16 9 6 6 7 9 13 15 17 15 10 7 4 1 0 0 0 0 0 0 0 0 0 0 0 0 0
0 0 0 0 0 0 0 0 0 0 0 0 0 0 0 0 1 1 1 3 11 19 19 11 7 8 9 10 12 13 13 11 7 4 2 1 0 0 0 0 0 0 0 0 0 0 0 0 0
0 0 0 0 0 0 0 0 0 0 0 0 0 0 0 1 1 1 2 7 17 24 23 15 11 12 12 12 12 11 10 8 5 2 1 1 0 0 0 0 0 0 0 0 0 0 0 0 0
0 0 0 0 0 0 0 0 0 0 0 0 0 0 1 2 2 3 6 13 22 26 24 20 17 16 15 15 15 13 10 8 6 4 1 1 0 0 0 0 0 0 0 0 0 0 0 0 0
0 0 0 0 0 0 0 0 0 0 0 0 0 0 1 4 8 9 12 18 26 29 28 26 24 18 15 16 18 17 13 9 7 4 2 1 0 0 0 0 0 0 0 0 0 0 0 0 0
0 0 0 0 0 0 0 0 0 0 0 0 1 2 4 9 16 19 20 24 30 35 36 33 27 20 15 15 18 19 16 11 7 3 1 0 0 0 0 0 0 0 0 0 0 0 0 0 0
0 0 0 0 0 0 0 0 0 0 0 1 3 5 8 17 25 29 31 33 36 40 41 37 29 21 17 16 18 19 17 12 6 2 1 0 0 0 0 0 0 0 0 0 0 0 0 0 0
0 0 0 0 0 0 0 0 0 0 0 2 5 6 12 27 41 44 43 42 42 41 40 36 31 24 20 18 17 18 17 13 6 2 1 0 0 0 0 0 0 0 0 0 0 0 0 0 0
0 0 0 0 0 0 0 0 1 1 2 4 8 12 23 42 57 57 52 48 47 43 38 35 34 31 26 22 20 20 19 15 9 5 3 2 1 1 0 0 0 0 0 0 0 0 0 0 0
0 0 0 0 0 0 1 1 2 3 4 6 12 24 40 54 60 60 57 54 53 48 41 34 34 37 34 29 27 27 25 20 13 9 7 5 3 2 2 1 1 1 1 1 1 1 0 0 0
0 0 0 0 0 1 2 3 4 4 4 6 15 32 49 56 55 53 54 56 55 52 44 34 30 34 36 35 35 35 33 27 18 12 8 6 4 4 3 3 2 2 2 2 2 1 0 0 0
0 0 0 1 1 2 3 5 6 6 5 6 15 33 48 52 50 48 49 51 52 51 46 36 29 30 34 37 39 39 37 31 21 13 8 7 7 5 4 3 2 2 3 3 3 2 1 1 0
0 0 1 2 2 2 3 5 6 7 9 11 19 33 44 46 45 44 45 44 44 45 43 37 31 32 37 40 40 39 38 32 23 14 10 9 9 5 3 3 2 2 2 3 3 3 2 2 1
0 0 1 1 1 1 3 4 6 9 12 17 23 31 39 42 41 41 41 40 38 38 39 36 33 34 39 42 42 39 37 34 26 20 15 12 8 4 2 2 2 2 2 2 2 2 2 2 2
0 0 0 0 0 1 2 4 8 12 14 19 23 27 33 38 40 39 39 37 36 35 36 36 33 31 33 37 39 36 34 32 30 25 20 14 8 3 0 1 1 1 1 2 1 1 1 1 1
0 0 0 0 0 0 1 4 10 14 16 19 23 25 31 37 39 37 36 36 35 33 34 34 31 27 26 29 31 29 28 27 27 26 21 15 10 4 2 1 0 0 1 2 2 1 0 0 0
0 0 0 0 0 0 1 4 9 12 16 20 23 25 29 33 32 29 30 34 35 35 33 31 27 24 23 24 23 21 20 20 20 20 16 13 10 8 6 3 1 0 1 2 2 1 0 0 0
0 0 0 0 0 0 1 5 8 12 16 19 22 23 23 23 21 21 24 30 35 34 32 28 24 22 22 22 20 18 16 15 16 14 10 8 8 8 7 4 1 1 1 1 1 0 0 0 0
0 0 0 0 0 1 4 7 10 13 16 19 20 18 16 13 13 17 21 27 31 31 27 25 23 23 22 22 21 19 16 14 14 12 6 3 5 7 6 4 3 2 2 2 2 1 1 1 1
0 0 0 0 0 2 4 7 9 10 13 16 17 14 12 10 11 15 19 23 26 27 24 22 23 23 21 20 20 19 15 13 12 10 5 2 2 4 5 4 3 3 3 3 3 3 3 2 1
0 0 0 0 0 1 2 3 4 4 6 9 11 10 10 10 10 12 14 17 20 23 22 21 21 21 19 17 16 15 13 11 10 7 4 1 0 1 3 3 3 3 3 3 3 3 3 2 1
0 0 0 1 0 0 1 1 1 1 2 4 6 7 9 9 8 8 10 11 14 18 19 18 18 17 16 14 13 12 11 9 7 5 3 2 1 2 3 3 3 3 3 3 3 3 3 1 0
0 0 0 0 0 0 0 0 0 0 1 1 3 5 7 8 7 7 7 8 10 13 15 15 14 13 13 11 11 10 9 7 5 4 3 2 2 3 3 3 3 3 3 2 2 2 2 1 0
0 0 0 0 0 0 0 0 0 0 0 0 1 2 3 6 7 7 6 7 8 10 11 11 10 10 10 10 9 8 7 5 3 3 3 2 3 3 2 1 2 2 1 1 1 1 1 0 0
0 0 0 0 0 0 0 0 1 0 0 0 0 0 1 3 5 5 5 5 5 6 8 8 8 7 8 7 6 5 5 4 3 3 3 3 3 2 1 1 1 1 0 0 0 0 0 0 0
0 0 0 0 0 0 0 1 1 0 0 0 0 0 0 1 2 2 2 2 2 3 4 5 5 5 4 3 2 2 2 3 3 3 3 3 2 1 1 0 0 0 0 0 0 0 0 0 0
0 0 0 0 0 0 0 1 0 0 0 0 0 1 0 0 0 0 0 0 1 2 2 3 3 2 1 1 0 0 2 3 3 3 2 1 1 0 0 0 0 0 0 0 0 0 0 0 0
0 0 0 0 0 0 0 0 0 0 0 0 0 0 0 0 0 0 0 0 1 1 1 1 1 0 0 0 0 1 2 3 2 1 1 0 0 0 0 0 0 0 0 0 0 0 0 0 0
0 0 0 0 0 0 0 0 0 0 0 0 0 0 0 0 0 0 0 0 0 0 0 0 0 0 0 0 0 1 2 2 1 0 0 0 0 0 0 0 0 0 0 0 0 0 0 0 0
0 0 0 0 0 0 0 0 0 0 0 0 0 0 0 0 0 0 0 0 0 0 0 0 0 0 0 0 0 1 1 1 0 0 0 0 0 0 0 0 0 0 0 0 0 0 0 0 0

GEFSSGP_con_probscp_102.txt.gz
Probability
0 0 0 0 0 0 0 0 0 0 0 0 0 0 0 0 1 2 2 3 12 29 40 42 42 38 28 23 24 25 25 25 21 13 6 3 1 0 0 0 0 0 0 0 0 0 0 0 0
0 0 0 0 0 0 0 0 0 0 0 0 0 0 0 0 1 2 3 5 16 31 41 44 47 44 35 30 31 32 32 31 27 20 12 6 3 2 0 0 0 0 0 0 0 0 0 0 0
0 0 0 0 0 0 0 0 0 0 0 0 0 0 0 0 2 3 5 10 22 33 40 47 53 51 43 39 39 42 44 41 36 28 19 11 7 4 2 0 0 0 0 0 0 0 0 0 0
0 0 0 0 0 0 0 0 0 0 0 0 0 0 0 0 2 5 8 15 27 33 38 48 57 55 48 44 45 48 50 46 41 35 26 16 10 6 4 1 0 0 0 0 0 0 0 0 0
0 0 0 0 0 0 0 0 0 0 0 0 0 0 0 1 4 8 11 17 27 34 40 50 59 58 52 47 45 48 50 48 44 39 31 21 12 8 6 3 1 1 1 0 0 0 0 0 0
0 0 0 0 0 0 0 0 0 0 0 0 0 0 1 3 8 11 12 14 23 35 46 53 55 54 50 45 42 44 49 50 47 41 35 26 16 11 8 5 3 3 3 1 0 0 0 0 0
0 0 0 0 0 0 0 0 0 0 0 0 1 1 3 7 13 16 15 15 23 37 49 51 47 44 41 39 39 43 49 50 47 42 36 29 21 15 10 7 5 5 4 3 1 1 0 0 0
0 0 0 0 0 0 0 0 0 0 1 2 3 3 7 15 22 25 25 26 31 40 46 46 42 38 32 29 34 41 45 46 44 39 33 27 19 12 8 6 7 7 4 3 3 2 1 0 0
0 0 0 0 0 0 0 0 1 1 2 4 5 6 13 23 32 36 39 41 42 43 44 44 43 38 29 25 30 33 33 34 33 28 23 17 10 6 5 8 11 8 4 3 3 2 1 0 0
0 0 0 0 0 0 1 1 1 1 3 4 5 9 17 27 36 41 46 49 49 47 46 45 46 44 35 32 34 30 24 23 20 16 14 12 9 7 7 12 14 8 4 3 3 2 1 0 0
0 0 0 0 0 1 2 2 2 2 2 4 6 11 18 26 33 40 47 52 53 51 50 50 52 50 45 42 43 38 33 30 24 20 20 20 20 15 12 14 13 8 5 3 3 2 1 0 0
0 0 0 0 1 2 2 2 2 3 5 6 8 12 18 25 31 38 45 53 56 55 56 56 57 57 52 49 49 48 47 44 41 39 36 34 31 23 17 19 15 9 7 6 4 3 1 0 0
0 0 0 0 1 2 1 1 2 6 8 9 9 12 17 24 30 36 43 49 54 56 58 57 57 58 57 56 55 52 51 50 53 53 48 43 39 31 27 27 24 15 10 9 6 4 4 2 1
0 0 0 0 1 1 0 1 4 7 8 10 11 13 16 21 29 38 43 46 49 51 53 54 52 52 55 59 59 56 54 55 58 59 54 47 44 41 37 35 30 22 17 16 12 7 7 8 7
0 0 0 0 0 0 0 1 4 6 9 12 14 16 17 21 30 42 48 48 46 44 46 48 47 47 51 56 59 60 59 59 61 61 58 50 45 46 46 41 36 31 29 29 23 15 14 15 14
0 0 0 0 0 0 0 1 3 7 12 16 19 21 23 25 33 44 50 50 47 44 44 43 43 47 53 56 58 58 58 59 62 62 59 52 48 49 51 48 44 42 42 41 33 26 24 21 19
0 0 0 0 0 0 0 1 3 8 12 17 22 26 28 29 34 42 47 49 49 48 47 44 43 48 54 56 55 54 54 56 58 58 55 52 50 50 51 49 47 46 45 43 38 34 31 26 21
0 0 0 0 0 0 0 0 2 6 9 13 19 25 27 27 30 36 41 45 46 47 49 47 44 46 50 51 50 49 48 49 49 49 47 45 45 46 46 45 44 44 43 41 38 36 32 27 21
0 0 0 0 0 0 0 0 2 4 7 10 14 19 21 21 24 29 35 39 40 41 44 45 43 43 44 46 47 45 42 39 37 36 36 36 37 38 40 40 40 41 42 39 34 31 27 22 18
0 0 0 0 0 0 0 1 3 4 7 9 13 18 18 17 18 21 26 32 35 36 39 42 43 41 40 42 44 42 36 30 26 25 26 29 30 30 32 34 34 36 37 35 31 26 21 17 16
0 0 0 0 0 0 0 1 2 3 5 8 14 19 17 13 13 14 18 24 30 34 38 41 41 40 39 39 39 37 31 25 22 21 20 20 21 22 23 25 27 29 30 30 28 24 20 17 14
0 0 0 0 0 0 0 0 0 1 2 5 11 15 13 11 11 11 13 17 23 30 35 36 36 36 36 36 36 33 27 23 21 19 16 13 13 14 16 19 21 22 24 24 22 20 18 15 12
0 0 0 0 0 0 0 0 0 1 1 3 6 9 9 10 11 11 13 14 17 21 25 28 30 32 33 32 32 29 23 19 17 14 11 9 7 8 11 14 16 16 17 16 15 14 14 12 11
0 0 0 0 0 0 0 0 1 2 2 3 5 5 7 8 9 10 12 12 12 13 17 20 23 27 28 27 25 22 18 14 12 9 7 5 4 5 7 9 10 10 10 9 8 9 9 9 9
0 0 0 0 0 0 0 0 2 3 2 3 4 4 5 6 6 8 10 9 8 10 12 15 17 18 19 19 18 16 14 12 10 6 4 3 3 3 4 5 5 5 5 4 4 5 6 6 6
0 0 0 0 0 0 0 1 2 2 2 2 3 3 3 4 5 8 10 8 7 8 10 11 11 12 12 12 12 11 10 9 7 4 2 1 1 3 3 3 3 3 3 3 3 3 3 3 3
0 0 0 0 0 0 0 1 2 1 1 1 1 1 2 3 3 5 7 6 6 6 7 7 8 7 7 7 6 6 5 3 3 2 1 0 1 2 3 3 3 3 2 2 1 1 1 1 1
0 0 0 0 0 0 0 0 1 1 1 0 0 0 1 1 1 2 2 2 2 3 4 5 4 4 3 2 3 3 2 0 0 1 2 1 1 2 2 2 2 1 1 1 0 0 0 0 0
0 0 0 0 0 0 0 0 1 1 0 0 0 0 0 0 0 0 0 0 0 0 1 2 2 2 1 0 1 2 2 1 0 1 2 2 2 1 1 1 1 0 0 0 0 0 0 0 0
0 0 0 0 0 0 0 0 1 1 0 0 0 0 0 0 0 0 0 0 0 0 0 0 1 1 0 0 0 1 2 1 1 2 3 3 1 0 0 0 0 0 0 0 0 0 0 0 0